Time,TemperatureF,DewpointF,PressureIn,WindDirection,WindDirectionDegrees,WindSpeedMPH,WindSpeedGustMPH,Humidity,HourlyPrecipIn,Conditions,Clouds,dailyrainin,SoftwareType,DateUTC
2013-01-06 00:00:00,33.4,24.7,30.22,WSW,242,1.0,1.0,70,0.00,,,0.00,Wunderground v.1.15,2013-01-06 05:00:00,
2013-01-06 00:02:00,33.3,24.2,30.22,WSW,257,0.0,5.0,69,0.00,,,0.00,Wunderground v.1.15,2013-01-06 05:02:00,
2013-01-06 00:03:00,33.2,24.1,30.22,WSW,257,0.0,5.0,69,0.00,,,0.00,Wunderground v.1.15,2013-01-06 05:03:00,
2013-01-06 00:05:00,33.2,24.1,30.22,WSW,244,0.0,5.0,69,0.00,,,0.00,Wunderground v.1.15,2013-01-06 05:05:00,
2013-01-06 00:06:00,33.2,24.5,30.22,WSW,241,0.0,5.0,70,0.00,,,0.00,Wunderground v.1.15,2013-01-06 05:06:00,
2013-01-06 00:11:00,33.0,24.6,30.22,SSW,202,0.0,0.0,71,0.00,,,0.00,Wunderground v.1.15,2013-01-06 05:11:00,
2013-01-06 00:12:00,32.9,24.5,30.22,SSW,202,0.0,0.0,71,0.00,,,0.00,Wunderground v.1.15,2013-01-06 05:12:00,
2013-01-06 00:13:00,32.9,24.5,30.22,West,275,0.0,0.0,71,0.00,,,0.00,Wunderground v.1.15,2013-01-06 05:13:00,
2013-01-06 00:17:00,32.8,24.1,30.22,West,263,0.0,0.0,70,0.00,,,0.00,Wunderground v.1.15,2013-01-06 05:17:00,
2013-01-06 00:22:00,32.7,24.3,30.22,West,273,0.0,0.0,71,0.00,,,0.00,Wunderground v.1.15,2013-01-06 05:22:00,
2013-01-06 00:23:00,32.7,24.7,30.22,West,273,0.0,0.0,72,0.00,,,0.00,Wunderground v.1.15,2013-01-06 05:23:00,
2013-01-06 00:24:00,32.6,24.6,30.22,West,272,0.0,0.0,72,0.00,,,0.00,Wunderground v.1.15,2013-01-06 05:24:00,
2013-01-06 00:25:00,32.6,24.6,30.22,West,273,0.0,0.0,72,0.00,,,0.00,Wunderground v.1.15,2013-01-06 05:25:00,
2013-01-06 00:30:00,32.4,24.0,30.21,West,275,0.0,2.0,71,0.00,,,0.00,Wunderground v.1.15,2013-01-06 05:30:00,
2013-01-06 00:32:00,32.3,24.3,30.21,West,270,1.0,5.0,72,0.00,,,0.00,Wunderground v.1.15,2013-01-06 05:32:00,
2013-01-06 00:34:00,32.4,24.0,30.20,West,270,1.0,5.0,71,0.00,,,0.00,Wunderground v.1.15,2013-01-06 05:34:00,
2013-01-06 00:37:00,32.3,24.6,30.20,West,269,1.0,5.0,73,0.00,,,0.00,Wunderground v.1.15,2013-01-06 05:37:00,
2013-01-06 00:40:00,32.2,24.5,30.21,West,269,0.0,0.0,73,0.00,,,0.00,Wunderground v.1.15,2013-01-06 05:40:00,
2013-01-06 00:41:00,32.2,24.2,30.21,West,269,0.0,0.0,72,0.00,,,0.00,Wunderground v.1.15,2013-01-06 05:41:00,
2013-01-06 00:42:00,32.2,24.5,30.21,West,274,0.0,0.0,73,0.00,,,0.00,Wunderground v.1.15,2013-01-06 05:42:00,
2013-01-06 00:43:00,32.2,24.5,30.21,WNW,292,0.0,4.0,73,0.00,,,0.00,Wunderground v.1.15,2013-01-06 05:43:00,
2013-01-06 00:47:00,32.1,24.7,30.22,WNW,291,0.0,4.0,74,0.00,,,0.00,Wunderground v.1.15,2013-01-06 05:47:00,
2013-01-06 00:48:00,32.1,24.7,30.22,WNW,290,0.0,4.0,74,0.00,,,0.00,Wunderground v.1.15,2013-01-06 05:48:00,
2013-01-06 00:49:00,32.0,24.6,30.22,WNW,290,0.0,4.0,74,0.00,,,0.00,Wunderground v.1.15,2013-01-06 05:49:00,
2013-01-06 00:51:00,32.0,24.6,30.22,WNW,286,0.0,0.0,74,0.00,,,0.00,Wunderground v.1.15,2013-01-06 05:51:00,
2013-01-06 00:55:00,31.9,25.5,30.21,West,277,1.0,5.0,77,0.00,,,0.00,Wunderground v.1.15,2013-01-06 05:55:00,
2013-01-06 00:57:00,31.9,25.5,30.21,West,264,1.0,5.0,77,0.00,,,0.00,Wunderground v.1.15,2013-01-06 05:57:00,
2013-01-06 00:59:00,31.9,25.5,30.21,West,265,1.0,5.0,77,0.00,,,0.00,Wunderground v.1.15,2013-01-06 05:59:00,
2013-01-06 01:00:00,31.8,25.7,30.21,West,266,1.0,1.0,78,0.00,,,0.00,Wunderground v.1.15,2013-01-06 06:00:00,
2013-01-06 01:04:00,31.7,25.9,30.22,West,265,1.0,5.0,79,0.00,,,0.00,Wunderground v.1.15,2013-01-06 06:04:00,
2013-01-06 01:06:00,31.6,25.8,30.22,West,265,1.0,5.0,79,0.00,,,0.00,Wunderground v.1.15,2013-01-06 06:06:00,
2013-01-06 01:08:00,31.5,25.7,30.21,West,265,0.0,5.0,79,0.00,,,0.00,Wunderground v.1.15,2013-01-06 06:08:00,
2013-01-06 01:09:00,31.5,25.7,30.21,West,264,0.0,5.0,79,0.00,,,0.00,Wunderground v.1.15,2013-01-06 06:09:00,
2013-01-06 01:10:00,31.5,26.0,30.21,West,265,0.0,0.0,80,0.00,,,0.00,Wunderground v.1.15,2013-01-06 06:10:00,
2013-01-06 01:15:00,31.6,26.1,30.21,WSW,244,0.0,1.0,80,0.00,,,0.00,Wunderground v.1.15,2013-01-06 06:15:00,
2013-01-06 01:16:00,31.6,26.1,30.20,WSW,244,0.0,1.0,80,0.00,,,0.00,Wunderground v.1.15,2013-01-06 06:16:00,
2013-01-06 01:21:00,31.7,26.5,30.21,SSW,209,0.0,0.0,81,0.00,,,0.00,Wunderground v.1.15,2013-01-06 06:21:00,
2013-01-06 01:22:00,31.7,26.5,30.21,West,272,0.0,0.0,81,0.00,,,0.00,Wunderground v.1.15,2013-01-06 06:22:00,
2013-01-06 01:23:00,31.8,26.9,30.20,WSW,250,0.0,0.0,82,0.00,,,0.00,Wunderground v.1.15,2013-01-06 06:23:00,
2013-01-06 01:27:00,32.2,27.3,30.20,WSW,244,0.0,0.0,82,0.00,,,0.00,Wunderground v.1.15,2013-01-06 06:27:00,
2013-01-06 01:28:00,32.4,27.5,30.20,WSW,257,0.0,0.0,82,0.00,,,0.00,Wunderground v.1.15,2013-01-06 06:28:00,
2013-01-06 01:29:00,32.5,27.6,30.20,WSW,258,0.0,0.0,82,0.00,,,0.00,Wunderground v.1.15,2013-01-06 06:29:00,
2013-01-06 01:33:00,32.8,27.9,30.19,WSW,257,0.0,6.0,82,0.00,,,0.00,Wunderground v.1.15,2013-01-06 06:33:00,
2013-01-06 01:34:00,32.9,27.7,30.19,NNW,330,0.0,6.0,81,0.00,,,0.00,Wunderground v.1.15,2013-01-06 06:34:00,
2013-01-06 01:40:00,33.3,27.8,30.20,SW,225,0.0,0.0,80,0.00,,,0.00,Wunderground v.1.15,2013-01-06 06:40:00,
2013-01-06 01:41:00,33.3,27.8,30.19,SW,225,0.0,0.0,80,0.00,,,0.00,Wunderground v.1.15,2013-01-06 06:41:00,
2013-01-06 01:42:00,33.4,27.9,30.19,SW,224,0.0,0.0,80,0.00,,,0.00,Wunderground v.1.15,2013-01-06 06:42:00,
2013-01-06 01:43:00,33.4,27.6,30.19,SW,224,0.0,1.0,79,0.00,,,0.00,Wunderground v.1.15,2013-01-06 06:43:00,
2013-01-06 01:46:00,33.4,27.6,30.20,WSW,252,0.0,1.0,79,0.00,,,0.00,Wunderground v.1.15,2013-01-06 06:46:00,
2013-01-06 01:50:00,33.5,27.4,30.18,SW,216,0.0,0.0,78,0.00,,,0.00,Wunderground v.1.15,2013-01-06 06:50:00,
2013-01-06 01:51:00,33.5,27.4,30.19,East,79,0.0,0.0,78,0.00,,,0.00,Wunderground v.1.15,2013-01-06 06:51:00,
2013-01-06 01:52:00,33.5,27.4,30.18,West,277,0.0,3.0,78,0.00,,,0.00,Wunderground v.1.15,2013-01-06 06:52:00,
2013-01-06 01:57:00,33.5,27.4,30.18,WSW,244,0.0,3.0,78,0.00,,,0.00,Wunderground v.1.15,2013-01-06 06:57:00,
2013-01-06 01:59:00,33.5,27.4,30.18,WSW,243,0.0,3.0,78,0.00,,,0.00,Wunderground v.1.15,2013-01-06 06:59:00,
2013-01-06 02:01:00,33.5,27.4,30.18,WSW,239,0.0,1.0,78,0.00,,,0.00,Wunderground v.1.15,2013-01-06 07:01:00,
2013-01-06 02:02:00,33.5,27.4,30.18,WSW,240,0.0,4.0,78,0.00,,,0.00,Wunderground v.1.15,2013-01-06 07:02:00,
2013-01-06 02:04:00,33.5,27.4,30.18,West,261,0.0,4.0,78,0.00,,,0.00,Wunderground v.1.15,2013-01-06 07:04:00,
2013-01-06 02:08:00,33.5,27.4,30.18,West,276,1.0,4.0,78,0.00,,,0.00,Wunderground v.1.15,2013-01-06 07:08:00,
2013-01-06 02:10:00,33.4,27.0,30.19,West,259,1.0,1.0,77,0.00,,,0.00,Wunderground v.1.15,2013-01-06 07:10:00,
2013-01-06 02:13:00,33.3,26.9,30.18,WNW,292,1.0,1.0,77,0.00,,,0.00,Wunderground v.1.15,2013-01-06 07:13:00,
2013-01-06 02:19:00,33.1,27.0,30.19,West,277,0.0,1.0,78,0.00,,,0.00,Wunderground v.1.15,2013-01-06 07:19:00,
2013-01-06 02:20:00,33.0,26.9,30.19,West,271,0.0,0.0,78,0.00,,,0.00,Wunderground v.1.15,2013-01-06 07:20:00,
2013-01-06 02:23:00,32.8,26.7,30.18,West,277,0.0,0.0,78,0.00,,,0.00,Wunderground v.1.15,2013-01-06 07:23:00,
2013-01-06 02:24:00,32.7,26.6,30.18,West,277,0.0,0.0,78,0.00,,,0.00,Wunderground v.1.15,2013-01-06 07:24:00,
2013-01-06 02:26:00,32.5,26.4,30.18,West,277,0.0,0.0,78,0.00,,,0.00,Wunderground v.1.15,2013-01-06 07:26:00,
2013-01-06 02:32:00,32.0,25.9,30.18,West,281,0.0,4.0,78,0.00,,,0.00,Wunderground v.1.15,2013-01-06 07:32:00,
2013-01-06 02:34:00,31.9,25.8,30.18,West,281,0.0,4.0,78,0.00,,,0.00,Wunderground v.1.15,2013-01-06 07:34:00,
2013-01-06 02:36:00,31.6,25.5,30.18,West,281,0.0,4.0,78,0.00,,,0.00,Wunderground v.1.15,2013-01-06 07:36:00,
2013-01-06 02:39:00,31.4,25.6,30.19,West,281,0.0,4.0,79,0.00,,,0.00,Wunderground v.1.15,2013-01-06 07:39:00,
2013-01-06 02:43:00,31.1,25.3,30.18,West,281,0.0,0.0,79,0.00,,,0.00,Wunderground v.1.15,2013-01-06 07:43:00,
2013-01-06 02:44:00,31.0,25.2,30.18,West,280,0.0,3.0,79,0.00,,,0.00,Wunderground v.1.15,2013-01-06 07:44:00,
2013-01-06 02:45:00,31.0,25.2,30.18,West,281,0.0,3.0,79,0.00,,,0.00,Wunderground v.1.15,2013-01-06 07:45:00,
2013-01-06 02:46:00,30.9,25.2,30.18,West,280,0.0,3.0,79,0.00,,,0.00,Wunderground v.1.15,2013-01-06 07:46:00,
2013-01-06 02:51:00,30.7,25.3,30.17,WNW,298,1.0,1.0,80,0.00,,,0.00,Wunderground v.1.15,2013-01-06 07:51:00,
2013-01-06 02:52:00,30.6,25.2,30.17,WNW,298,1.0,1.0,80,0.00,,,0.00,Wunderground v.1.15,2013-01-06 07:52:00,
2013-01-06 02:54:00,30.5,25.1,30.17,WNW,298,0.0,1.0,80,0.00,,,0.00,Wunderground v.1.15,2013-01-06 07:54:00,
2013-01-06 02:57:00,30.4,24.7,30.18,WNW,298,0.0,1.0,79,0.00,,,0.00,Wunderground v.1.15,2013-01-06 07:57:00,
2013-01-06 02:58:00,30.3,24.6,30.17,WNW,298,0.0,1.0,79,0.00,,,0.00,Wunderground v.1.15,2013-01-06 07:58:00,
2013-01-06 02:59:00,30.3,24.6,30.17,WNW,298,0.0,1.0,79,0.00,,,0.00,Wunderground v.1.15,2013-01-06 07:59:00,
2013-01-06 03:03:00,29.9,24.5,30.18,WNW,296,0.0,5.0,80,0.00,,,0.00,Wunderground v.1.15,2013-01-06 08:03:00,
2013-01-06 03:04:00,29.9,24.5,30.18,WNW,296,0.0,5.0,80,0.00,,,0.00,Wunderground v.1.15,2013-01-06 08:04:00,
2013-01-06 03:09:00,29.8,24.4,30.18,WNW,296,0.0,5.0,80,0.00,,,0.00,Wunderground v.1.15,2013-01-06 08:09:00,
2013-01-06 03:10:00,29.8,24.4,30.17,WNW,296,0.0,0.0,80,0.00,,,0.00,Wunderground v.1.15,2013-01-06 08:10:00,
2013-01-06 03:13:00,29.9,24.2,30.17,WNW,296,0.0,0.0,79,0.00,,,0.00,Wunderground v.1.15,2013-01-06 08:13:00,
2013-01-06 03:14:00,29.9,24.2,30.17,WNW,287,0.0,3.0,79,0.00,,,0.00,Wunderground v.1.15,2013-01-06 08:14:00,
2013-01-06 03:16:00,30.1,24.4,30.17,WNW,286,1.0,3.0,79,0.00,,,0.00,Wunderground v.1.15,2013-01-06 08:16:00,
2013-01-06 03:19:00,30.3,24.6,30.17,WNW,286,0.0,3.0,79,0.00,,,0.00,Wunderground v.1.15,2013-01-06 08:19:00,
2013-01-06 03:20:00,30.4,24.7,30.17,WNW,286,0.0,0.0,79,0.00,,,0.00,Wunderground v.1.15,2013-01-06 08:20:00,
2013-01-06 03:21:00,30.5,24.8,30.17,WNW,286,0.0,0.0,79,0.00,,,0.00,Wunderground v.1.15,2013-01-06 08:21:00,
2013-01-06 03:24:00,30.7,24.7,30.17,WNW,286,0.0,0.0,78,0.00,,,0.00,Wunderground v.1.15,2013-01-06 08:24:00,
2013-01-06 03:25:00,30.7,24.7,30.17,WNW,286,0.0,0.0,78,0.00,,,0.00,Wunderground v.1.15,2013-01-06 08:25:00,
2013-01-06 03:30:00,31.0,24.6,30.17,WNW,286,0.0,0.0,77,0.00,,,0.00,Wunderground v.1.15,2013-01-06 08:30:00,
2013-01-06 03:31:00,31.1,24.7,30.17,WNW,286,0.0,4.0,77,0.00,,,0.00,Wunderground v.1.15,2013-01-06 08:31:00,
2013-01-06 03:32:00,31.1,24.7,30.17,WNW,286,0.0,4.0,77,0.00,,,0.00,Wunderground v.1.15,2013-01-06 08:32:00,
2013-01-06 03:35:00,31.2,24.8,30.16,WNW,284,0.0,4.0,77,0.00,,,0.00,Wunderground v.1.15,2013-01-06 08:35:00,
2013-01-06 03:36:00,31.3,24.9,30.16,WNW,285,0.0,4.0,77,0.00,,,0.00,Wunderground v.1.15,2013-01-06 08:36:00,
2013-01-06 03:39:00,31.3,24.9,30.17,WNW,284,0.0,4.0,77,0.00,,,0.00,Wunderground v.1.15,2013-01-06 08:39:00,
2013-01-06 03:40:00,31.3,24.6,30.17,WNW,286,0.0,0.0,76,0.00,,,0.00,Wunderground v.1.15,2013-01-06 08:40:00,
2013-01-06 03:42:00,31.3,24.9,30.17,WNW,284,0.0,0.0,77,0.00,,,0.00,Wunderground v.1.15,2013-01-06 08:42:00,
2013-01-06 03:43:00,31.2,24.8,30.17,WNW,285,0.0,0.0,77,0.00,,,0.00,Wunderground v.1.15,2013-01-06 08:43:00,
2013-01-06 03:44:00,31.2,24.8,30.17,WNW,285,0.0,0.0,77,0.00,,,0.00,Wunderground v.1.15,2013-01-06 08:44:00,
2013-01-06 03:49:00,31.2,24.8,30.17,WNW,285,0.0,0.0,77,0.00,,,0.00,Wunderground v.1.15,2013-01-06 08:49:00,
2013-01-06 03:50:00,31.2,24.8,30.17,WNW,285,0.0,0.0,77,0.00,,,0.00,Wunderground v.1.15,2013-01-06 08:50:00,
2013-01-06 03:51:00,31.2,24.8,30.17,WNW,285,0.0,0.0,77,0.00,,,0.00,Wunderground v.1.15,2013-01-06 08:51:00,
2013-01-06 03:55:00,31.3,24.9,30.16,WNW,285,0.0,0.0,77,0.00,,,0.00,Wunderground v.1.15,2013-01-06 08:55:00,
2013-01-06 03:58:00,31.4,25.0,30.16,WNW,285,0.0,0.0,77,0.00,,,0.00,Wunderground v.1.15,2013-01-06 08:58:00,
2013-01-06 03:59:00,31.4,25.0,30.16,WNW,286,0.0,0.0,77,0.00,,,0.00,Wunderground v.1.15,2013-01-06 08:59:00,
2013-01-06 04:01:00,31.4,25.0,30.16,WNW,286,0.0,3.0,77,0.00,,,0.00,Wunderground v.1.15,2013-01-06 09:01:00,
2013-01-06 04:03:00,31.4,25.0,30.16,WNW,286,0.0,3.0,77,0.00,,,0.00,Wunderground v.1.15,2013-01-06 09:03:00,
2013-01-06 04:07:00,31.5,24.8,30.16,WNW,286,1.0,3.0,76,0.00,,,0.00,Wunderground v.1.15,2013-01-06 09:07:00,
2013-01-06 04:10:00,31.5,24.8,30.16,WNW,286,1.0,1.0,76,0.00,,,0.00,Wunderground v.1.15,2013-01-06 09:10:00,
2013-01-06 04:11:00,31.6,24.6,30.16,WNW,286,1.0,2.0,75,0.00,,,0.00,Wunderground v.1.15,2013-01-06 09:11:00,
2013-01-06 04:14:00,31.7,24.7,30.16,WNW,288,1.0,3.0,75,0.00,,,0.00,Wunderground v.1.15,2013-01-06 09:14:00,
2013-01-06 04:15:00,31.8,24.8,30.16,WNW,288,1.0,3.0,75,0.00,,,0.00,Wunderground v.1.15,2013-01-06 09:15:00,
2013-01-06 04:17:00,31.8,24.8,30.16,WNW,288,1.0,3.0,75,0.00,,,0.00,Wunderground v.1.15,2013-01-06 09:17:00,
2013-01-06 04:21:00,31.8,24.8,30.16,WNW,288,1.0,1.0,75,0.00,,,0.00,Wunderground v.1.15,2013-01-06 09:21:00,
2013-01-06 04:23:00,31.8,24.8,30.16,WNW,288,0.0,1.0,75,0.00,,,0.00,Wunderground v.1.15,2013-01-06 09:23:00,
2013-01-06 04:24:00,31.8,24.8,30.16,WNW,288,0.0,1.0,75,0.00,,,0.00,Wunderground v.1.15,2013-01-06 09:24:00,
2013-01-06 04:26:00,31.8,24.8,30.16,WNW,289,0.0,3.0,75,0.00,,,0.00,Wunderground v.1.15,2013-01-06 09:26:00,
2013-01-06 04:28:00,31.9,24.6,30.16,WNW,290,1.0,3.0,74,0.00,,,0.00,Wunderground v.1.15,2013-01-06 09:28:00,
2013-01-06 04:30:00,31.9,24.6,30.16,WNW,290,0.0,0.0,74,0.00,,,0.00,Wunderground v.1.15,2013-01-06 09:30:00,
2013-01-06 04:32:00,32.0,24.6,30.15,WNW,290,0.0,3.0,74,0.00,,,0.00,Wunderground v.1.15,2013-01-06 09:32:00,
2013-01-06 04:33:00,31.9,24.6,30.15,WNW,290,0.0,3.0,74,0.00,,,0.00,Wunderground v.1.15,2013-01-06 09:33:00,
2013-01-06 04:36:00,31.9,24.6,30.16,WNW,290,0.0,3.0,74,0.00,,,0.00,Wunderground v.1.15,2013-01-06 09:36:00,
2013-01-06 04:37:00,31.8,24.5,30.15,WNW,290,0.0,3.0,74,0.00,,,0.00,Wunderground v.1.15,2013-01-06 09:37:00,
2013-01-06 04:39:00,31.7,24.4,30.16,WNW,290,0.0,3.0,74,0.00,,,0.00,Wunderground v.1.15,2013-01-06 09:39:00,
2013-01-06 04:42:00,31.7,24.4,30.15,WNW,300,0.0,2.0,74,0.00,,,0.00,Wunderground v.1.15,2013-01-06 09:42:00,
2013-01-06 04:44:00,31.7,24.7,30.16,WNW,300,0.0,2.0,75,0.00,,,0.00,Wunderground v.1.15,2013-01-06 09:44:00,
2013-01-06 04:45:00,31.7,24.4,30.15,WNW,298,0.0,2.0,74,0.00,,,0.00,Wunderground v.1.15,2013-01-06 09:45:00,
2013-01-06 04:48:00,31.9,24.6,30.15,WNW,287,0.0,2.0,74,0.00,,,0.00,Wunderground v.1.15,2013-01-06 09:48:00,
2013-01-06 04:49:00,32.0,24.3,30.15,WNW,287,0.0,2.0,73,0.00,,,0.00,Wunderground v.1.15,2013-01-06 09:49:00,
2013-01-06 04:54:00,32.1,24.4,30.15,WNW,286,0.0,0.0,73,0.00,,,0.00,Wunderground v.1.15,2013-01-06 09:54:00,
2013-01-06 04:57:00,32.2,24.5,30.15,WNW,286,0.0,0.0,73,0.00,,,0.00,Wunderground v.1.15,2013-01-06 09:57:00,
2013-01-06 04:58:00,32.2,24.5,30.15,WNW,295,0.0,1.0,73,0.00,,,0.00,Wunderground v.1.15,2013-01-06 09:58:00,
2013-01-06 05:03:00,32.0,24.3,30.15,WNW,289,1.0,3.0,73,0.00,,,0.00,Wunderground v.1.15,2013-01-06 10:03:00,
2013-01-06 05:04:00,32.0,24.3,30.15,WNW,289,1.0,3.0,73,0.00,,,0.00,Wunderground v.1.15,2013-01-06 10:04:00,
2013-01-06 05:06:00,31.8,24.1,30.15,WNW,289,1.0,3.0,73,0.00,,,0.00,Wunderground v.1.15,2013-01-06 10:06:00,
2013-01-06 05:10:00,31.8,24.1,30.14,WNW,295,1.0,1.0,73,0.00,,,0.00,Wunderground v.1.15,2013-01-06 10:10:00,
2013-01-06 05:13:00,31.8,24.1,30.14,NW,309,1.0,1.0,73,0.00,,,0.00,Wunderground v.1.15,2013-01-06 10:13:00,
2013-01-06 05:14:00,31.9,24.2,30.14,NW,309,1.0,1.0,73,0.00,,,0.00,Wunderground v.1.15,2013-01-06 10:14:00,
2013-01-06 05:16:00,31.9,24.2,30.15,WNW,290,0.0,1.0,73,0.00,,,0.00,Wunderground v.1.15,2013-01-06 10:16:00,
2013-01-06 05:17:00,31.9,24.2,30.14,WNW,290,0.0,1.0,73,0.00,,,0.00,Wunderground v.1.15,2013-01-06 10:17:00,
2013-01-06 05:18:00,31.9,24.2,30.14,WNW,290,0.0,1.0,73,0.00,,,0.00,Wunderground v.1.15,2013-01-06 10:18:00,
2013-01-06 05:19:00,31.9,24.2,30.14,WNW,291,0.0,1.0,73,0.00,,,0.00,Wunderground v.1.15,2013-01-06 10:19:00,
2013-01-06 05:21:00,31.8,24.1,30.14,WNW,291,0.0,0.0,73,0.00,,,0.00,Wunderground v.1.15,2013-01-06 10:21:00,
2013-01-06 05:24:00,31.8,24.1,30.14,WNW,283,1.0,2.0,73,0.00,,,0.00,Wunderground v.1.15,2013-01-06 10:24:00,
2013-01-06 05:25:00,31.8,24.1,30.14,WNW,283,1.0,2.0,73,0.00,,,0.00,Wunderground v.1.15,2013-01-06 10:25:00,
2013-01-06 05:29:00,31.9,24.2,30.14,WNW,287,1.0,2.0,73,0.00,,,0.00,Wunderground v.1.15,2013-01-06 10:29:00,
2013-01-06 05:30:00,31.9,24.2,30.14,WNW,287,1.0,2.0,73,0.00,,,0.00,Wunderground v.1.15,2013-01-06 10:30:00,
2013-01-06 05:32:00,32.0,24.3,30.14,WNW,287,1.0,4.0,73,0.00,,,0.00,Wunderground v.1.15,2013-01-06 10:32:00,
2013-01-06 05:37:00,31.9,24.2,30.14,WNW,288,0.0,4.0,73,0.00,,,0.00,Wunderground v.1.15,2013-01-06 10:37:00,
2013-01-06 05:38:00,31.9,24.2,30.14,WNW,285,0.0,4.0,73,0.00,,,0.00,Wunderground v.1.15,2013-01-06 10:38:00,
2013-01-06 05:39:00,31.9,24.2,30.14,NW,319,0.0,4.0,73,0.00,,,0.00,Wunderground v.1.15,2013-01-06 10:39:00,
2013-01-06 05:40:00,31.9,24.2,30.14,WNW,294,1.0,1.0,73,0.00,,,0.00,Wunderground v.1.15,2013-01-06 10:40:00,
2013-01-06 05:43:00,31.9,24.2,30.14,WNW,294,1.0,1.0,73,0.00,,,0.00,Wunderground v.1.15,2013-01-06 10:43:00,
2013-01-06 05:45:00,32.0,24.3,30.14,WNW,295,1.0,1.0,73,0.00,,,0.00,Wunderground v.1.15,2013-01-06 10:45:00,
2013-01-06 05:46:00,31.9,24.2,30.14,WNW,295,1.0,1.0,73,0.00,,,0.00,Wunderground v.1.15,2013-01-06 10:46:00,
2013-01-06 05:48:00,31.9,24.2,30.14,WNW,296,0.0,1.0,73,0.00,,,0.00,Wunderground v.1.15,2013-01-06 10:48:00,
2013-01-06 05:50:00,31.9,24.2,30.14,WNW,295,0.0,0.0,73,0.00,,,0.00,Wunderground v.1.15,2013-01-06 10:50:00,
2013-01-06 05:52:00,31.9,24.2,30.14,WNW,290,0.0,0.0,73,0.00,,,0.00,Wunderground v.1.15,2013-01-06 10:52:00,
2013-01-06 05:54:00,31.9,24.2,30.14,WNW,296,0.0,0.0,73,0.00,,,0.00,Wunderground v.1.15,2013-01-06 10:54:00,
2013-01-06 05:58:00,32.3,24.6,30.14,WNW,303,1.0,4.0,73,0.00,,,0.00,Wunderground v.1.15,2013-01-06 10:58:00,
2013-01-06 06:01:00,32.3,24.6,30.14,WNW,302,1.0,4.0,73,0.00,,,0.00,Wunderground v.1.15,2013-01-06 11:01:00,
2013-01-06 06:03:00,32.2,24.5,30.14,WNW,302,1.0,4.0,73,0.00,,,0.00,Wunderground v.1.15,2013-01-06 11:03:00,
2013-01-06 06:05:00,32.1,24.4,30.15,WNW,302,1.0,4.0,73,0.00,,,0.00,Wunderground v.1.15,2013-01-06 11:05:00,
2013-01-06 06:10:00,32.1,24.4,30.14,West,264,0.0,1.0,73,0.00,,,0.00,Wunderground v.1.15,2013-01-06 11:10:00,
2013-01-06 06:12:00,32.2,24.5,30.14,West,264,1.0,2.0,73,0.00,,,0.00,Wunderground v.1.15,2013-01-06 11:12:00,
2013-01-06 06:13:00,32.2,24.5,30.15,West,264,1.0,2.0,73,0.00,,,0.00,Wunderground v.1.15,2013-01-06 11:13:00,
2013-01-06 06:14:00,32.3,24.6,30.15,West,264,1.0,2.0,73,0.00,,,0.00,Wunderground v.1.15,2013-01-06 11:14:00,
2013-01-06 06:18:00,32.3,24.6,30.15,West,264,1.0,2.0,73,0.00,,,0.00,Wunderground v.1.15,2013-01-06 11:18:00,
2013-01-06 06:19:00,32.4,24.7,30.15,West,265,1.0,2.0,73,0.00,,,0.00,Wunderground v.1.15,2013-01-06 11:19:00,
2013-01-06 06:22:00,32.3,24.6,30.15,West,265,0.0,0.0,73,0.00,,,0.00,Wunderground v.1.15,2013-01-06 11:22:00,
2013-01-06 06:25:00,32.2,24.5,30.15,West,265,0.0,0.0,73,0.00,,,0.00,Wunderground v.1.15,2013-01-06 11:25:00,
2013-01-06 06:26:00,32.2,24.5,30.15,West,264,0.0,0.0,73,0.00,,,0.00,Wunderground v.1.15,2013-01-06 11:26:00,
2013-01-06 06:28:00,32.2,24.5,30.15,West,264,0.0,0.0,73,0.00,,,0.00,Wunderground v.1.15,2013-01-06 11:28:00,
2013-01-06 06:30:00,32.2,24.5,30.15,West,265,0.0,0.0,73,0.00,,,0.00,Wunderground v.1.15,2013-01-06 11:30:00,
2013-01-06 06:33:00,32.2,24.5,30.15,West,265,0.0,6.0,73,0.00,,,0.00,Wunderground v.1.15,2013-01-06 11:33:00,
2013-01-06 06:38:00,32.2,24.5,30.15,West,265,0.0,6.0,73,0.00,,,0.00,Wunderground v.1.15,2013-01-06 11:38:00,
2013-01-06 06:39:00,32.2,24.5,30.15,West,265,0.0,6.0,73,0.00,,,0.00,Wunderground v.1.15,2013-01-06 11:39:00,
2013-01-06 06:44:00,32.3,24.6,30.15,WNW,285,1.0,2.0,73,0.00,,,0.00,Wunderground v.1.15,2013-01-06 11:44:00,
2013-01-06 06:45:00,32.3,24.6,30.15,WNW,285,1.0,2.0,73,0.00,,,0.00,Wunderground v.1.15,2013-01-06 11:45:00,
2013-01-06 06:46:00,32.4,24.7,30.15,West,268,1.0,2.0,73,0.00,,,0.00,Wunderground v.1.15,2013-01-06 11:46:00,
2013-01-06 06:50:00,32.5,24.8,30.15,West,268,1.0,1.0,73,0.00,,,0.00,Wunderground v.1.15,2013-01-06 11:50:00,
2013-01-06 06:51:00,32.5,24.8,30.15,West,269,1.0,1.0,73,0.00,,,0.00,Wunderground v.1.15,2013-01-06 11:51:00,
2013-01-06 06:56:00,32.6,24.9,30.16,West,271,0.0,2.0,73,0.00,,,0.00,Wunderground v.1.15,2013-01-06 11:56:00,
2013-01-06 06:57:00,32.6,24.9,30.15,West,271,0.0,2.0,73,0.00,,,0.00,Wunderground v.1.15,2013-01-06 11:57:00,
2013-01-06 06:58:00,32.6,24.9,30.15,West,269,0.0,2.0,73,0.00,,,0.00,Wunderground v.1.15,2013-01-06 11:58:00,
2013-01-06 07:01:00,32.7,25.0,30.15,West,279,0.0,4.0,73,0.00,,,0.00,Wunderground v.1.15,2013-01-06 12:01:00,
2013-01-06 07:04:00,32.8,25.1,30.15,West,279,0.0,4.0,73,0.00,,,0.00,Wunderground v.1.15,2013-01-06 12:04:00,
2013-01-06 07:05:00,32.8,25.1,30.16,West,279,0.0,4.0,73,0.00,,,0.00,Wunderground v.1.15,2013-01-06 12:05:00,
2013-01-06 07:06:00,32.9,25.2,30.16,West,279,0.0,4.0,73,0.00,,,0.00,Wunderground v.1.15,2013-01-06 12:06:00,
2013-01-06 07:08:00,32.9,25.2,30.16,West,279,0.0,4.0,73,0.00,,,0.00,Wunderground v.1.15,2013-01-06 12:08:00,
2013-01-06 07:11:00,33.0,25.3,30.16,West,279,0.0,0.0,73,0.00,,,0.00,Wunderground v.1.15,2013-01-06 12:11:00,
2013-01-06 07:12:00,33.0,25.3,30.16,West,279,0.0,0.0,73,0.00,,,0.00,Wunderground v.1.15,2013-01-06 12:12:00,
2013-01-06 07:13:00,33.1,25.4,30.15,West,279,0.0,0.0,73,0.00,,,0.00,Wunderground v.1.15,2013-01-06 12:13:00,
2013-01-06 07:14:00,33.2,25.5,30.15,West,279,0.0,0.0,73,0.00,,,0.00,Wunderground v.1.15,2013-01-06 12:14:00,
2013-01-06 07:17:00,33.3,25.2,30.16,West,281,0.0,2.0,72,0.00,,,0.00,Wunderground v.1.15,2013-01-06 12:17:00,
2013-01-06 07:18:00,33.4,25.3,30.16,West,281,0.0,2.0,72,0.00,,,0.00,Wunderground v.1.15,2013-01-06 12:18:00,
2013-01-06 07:19:00,33.4,25.7,30.16,West,281,0.0,2.0,73,0.00,,,0.00,Wunderground v.1.15,2013-01-06 12:19:00,
2013-01-06 07:21:00,33.3,25.6,30.15,West,281,0.0,0.0,73,0.00,,,0.00,Wunderground v.1.15,2013-01-06 12:21:00,
2013-01-06 07:25:00,33.3,25.6,30.15,West,281,0.0,0.0,73,0.00,,,0.00,Wunderground v.1.15,2013-01-06 12:25:00,
2013-01-06 07:26:00,33.3,25.6,30.15,West,281,0.0,0.0,73,0.00,,,0.00,Wunderground v.1.15,2013-01-06 12:26:00,
2013-01-06 07:27:00,33.3,25.6,30.15,West,281,0.0,0.0,73,0.00,,,0.00,Wunderground v.1.15,2013-01-06 12:27:00,
2013-01-06 07:31:00,33.2,25.5,30.16,West,281,0.0,5.0,73,0.00,,,0.00,Wunderground v.1.15,2013-01-06 12:31:00,
2013-01-06 07:32:00,33.2,25.5,30.15,West,281,0.0,5.0,73,0.00,,,0.00,Wunderground v.1.15,2013-01-06 12:32:00,
2013-01-06 07:33:00,33.2,25.1,30.15,West,281,0.0,5.0,72,0.00,,,0.00,Wunderground v.1.15,2013-01-06 12:33:00,
2013-01-06 07:38:00,33.2,25.1,30.16,West,281,0.0,5.0,72,0.00,,,0.00,Wunderground v.1.15,2013-01-06 12:38:00,
2013-01-06 07:39:00,33.2,25.1,30.16,West,281,0.0,5.0,72,0.00,,,0.00,Wunderground v.1.15,2013-01-06 12:39:00,
2013-01-06 07:43:00,33.2,25.5,30.16,West,281,0.0,0.0,73,0.00,,,0.00,Wunderground v.1.15,2013-01-06 12:43:00,
2013-01-06 07:44:00,33.2,25.5,30.16,West,281,0.0,0.0,73,0.00,,,0.00,Wunderground v.1.15,2013-01-06 12:44:00,
2013-01-06 07:45:00,33.1,25.4,30.16,West,281,0.0,0.0,73,0.00,,,0.00,Wunderground v.1.15,2013-01-06 12:45:00,
2013-01-06 07:47:00,33.2,25.5,30.16,West,281,0.0,0.0,73,0.00,,,0.00,Wunderground v.1.15,2013-01-06 12:47:00,
2013-01-06 07:49:00,33.2,25.5,30.16,West,281,0.0,0.0,73,0.00,,,0.00,Wunderground v.1.15,2013-01-06 12:49:00,
2013-01-06 07:53:00,33.2,25.5,30.16,West,281,0.0,0.0,73,0.00,,,0.00,Wunderground v.1.15,2013-01-06 12:53:00,
2013-01-06 07:54:00,33.2,25.5,30.16,West,281,0.0,0.0,73,0.00,,,0.00,Wunderground v.1.15,2013-01-06 12:54:00,
2013-01-06 07:55:00,33.2,25.5,30.16,West,281,0.0,0.0,73,0.00,,,0.00,Wunderground v.1.15,2013-01-06 12:55:00,
2013-01-06 08:00:00,33.4,25.3,30.16,West,281,0.0,0.0,72,0.00,,,0.00,Wunderground v.1.15,2013-01-06 13:00:00,
2013-01-06 08:02:00,33.4,25.3,30.16,West,281,0.0,2.0,72,0.00,,,0.00,Wunderground v.1.15,2013-01-06 13:02:00,
2013-01-06 08:06:00,33.5,25.4,30.16,West,281,0.0,2.0,72,0.00,,,0.00,Wunderground v.1.15,2013-01-06 13:06:00,
2013-01-06 08:07:00,33.5,25.8,30.15,West,281,0.0,2.0,73,0.00,,,0.00,Wunderground v.1.15,2013-01-06 13:07:00,
2013-01-06 08:11:00,33.6,25.9,30.15,West,281,0.0,0.0,73,0.00,,,0.00,Wunderground v.1.15,2013-01-06 13:11:00,
2013-01-06 08:12:00,33.6,25.5,30.15,West,281,0.0,0.0,72,0.00,,,0.00,Wunderground v.1.15,2013-01-06 13:12:00,
2013-01-06 08:13:00,33.7,26.0,30.15,West,281,0.0,0.0,73,0.00,,,0.00,Wunderground v.1.15,2013-01-06 13:13:00,
2013-01-06 08:17:00,33.8,26.1,30.16,West,281,0.0,0.0,73,0.00,,,0.00,Wunderground v.1.15,2013-01-06 13:17:00,
2013-01-06 08:18:00,33.9,26.2,30.16,West,281,0.0,0.0,73,0.00,,,0.00,Wunderground v.1.15,2013-01-06 13:18:00,
2013-01-06 08:20:00,34.0,25.9,30.16,West,281,0.0,0.0,72,0.00,,,0.00,Wunderground v.1.15,2013-01-06 13:20:00,
2013-01-06 08:21:00,34.0,26.3,30.16,West,281,0.0,0.0,73,0.00,,,0.00,Wunderground v.1.15,2013-01-06 13:21:00,
2013-01-06 08:24:00,34.1,26.3,30.16,West,281,0.0,0.0,73,0.00,,,0.00,Wunderground v.1.15,2013-01-06 13:24:00,
2013-01-06 08:25:00,34.0,26.3,30.16,West,281,0.0,0.0,73,0.00,,,0.00,Wunderground v.1.15,2013-01-06 13:25:00,
2013-01-06 08:27:00,34.1,26.0,30.16,West,281,0.0,2.0,72,0.00,,,0.00,Wunderground v.1.15,2013-01-06 13:27:00,
2013-01-06 08:28:00,34.1,26.0,30.16,WNW,282,0.0,2.0,72,0.00,,,0.00,Wunderground v.1.15,2013-01-06 13:28:00,
2013-01-06 08:29:00,34.1,26.0,30.16,WNW,282,1.0,2.0,72,0.00,,,0.00,Wunderground v.1.15,2013-01-06 13:29:00,
2013-01-06 08:30:00,34.1,26.0,30.16,WNW,283,1.0,2.0,72,0.00,,,0.00,Wunderground v.1.15,2013-01-06 13:30:00,
2013-01-06 08:35:00,34.2,26.1,30.16,WNW,283,1.0,2.0,72,0.00,,,0.00,Wunderground v.1.15,2013-01-06 13:35:00,
2013-01-06 08:37:00,34.3,26.2,30.16,WNW,283,1.0,2.0,72,0.00,,,0.00,Wunderground v.1.15,2013-01-06 13:37:00,
2013-01-06 08:38:00,34.3,26.5,30.16,WNW,283,1.0,2.0,73,0.00,,,0.00,Wunderground v.1.15,2013-01-06 13:38:00,
2013-01-06 08:40:00,34.4,26.3,30.16,WNW,283,1.0,2.0,72,0.00,,,0.00,Wunderground v.1.15,2013-01-06 13:40:00,
2013-01-06 08:42:00,34.4,26.6,30.15,WNW,283,0.0,2.0,73,0.00,,,0.00,Wunderground v.1.15,2013-01-06 13:42:00,
2013-01-06 08:44:00,34.4,26.6,30.16,WNW,283,0.0,2.0,73,0.00,,,0.00,Wunderground v.1.15,2013-01-06 13:44:00,
2013-01-06 08:47:00,34.4,26.6,30.16,West,281,0.0,2.0,73,0.00,,,0.00,Wunderground v.1.15,2013-01-06 13:47:00,
2013-01-06 08:48:00,34.4,26.6,30.16,West,281,0.0,2.0,73,0.00,,,0.00,Wunderground v.1.15,2013-01-06 13:48:00,
2013-01-06 08:53:00,34.4,26.6,30.15,West,281,0.0,0.0,73,0.00,,,0.00,Wunderground v.1.15,2013-01-06 13:53:00,
2013-01-06 08:56:00,34.4,26.6,30.15,West,280,0.0,0.0,73,0.00,,,0.00,Wunderground v.1.15,2013-01-06 13:56:00,
2013-01-06 08:58:00,34.4,26.3,30.15,West,280,0.0,0.0,72,0.00,,,0.00,Wunderground v.1.15,2013-01-06 13:58:00,
2013-01-06 08:59:00,34.4,26.3,30.15,West,280,0.0,0.0,72,0.00,,,0.00,Wunderground v.1.15,2013-01-06 13:59:00,
2013-01-06 09:01:00,34.4,26.3,30.16,West,280,0.0,3.0,72,0.00,,,0.00,Wunderground v.1.15,2013-01-06 14:01:00,
2013-01-06 09:02:00,34.4,26.3,30.16,West,280,0.0,3.0,72,0.00,,,0.00,Wunderground v.1.15,2013-01-06 14:02:00,
2013-01-06 09:07:00,34.1,26.0,30.15,West,280,0.0,3.0,72,0.00,,,0.00,Wunderground v.1.15,2013-01-06 14:07:00,
2013-01-06 09:08:00,34.1,26.0,30.15,West,280,0.0,3.0,72,0.00,,,0.00,Wunderground v.1.15,2013-01-06 14:08:00,
2013-01-06 09:12:00,33.9,26.2,30.15,West,280,0.0,0.0,73,0.00,,,0.00,Wunderground v.1.15,2013-01-06 14:12:00,
2013-01-06 09:13:00,33.9,25.8,30.15,West,280,0.0,0.0,72,0.00,,,0.00,Wunderground v.1.15,2013-01-06 14:13:00,
2013-01-06 09:15:00,33.9,25.8,30.15,West,280,0.0,0.0,72,0.00,,,0.00,Wunderground v.1.15,2013-01-06 14:15:00,
2013-01-06 09:16:00,33.9,25.8,30.15,West,277,0.0,2.0,72,0.00,,,0.00,Wunderground v.1.15,2013-01-06 14:16:00,
2013-01-06 09:21:00,34.1,26.0,30.15,West,277,1.0,1.0,72,0.00,,,0.00,Wunderground v.1.15,2013-01-06 14:21:00,
2013-01-06 09:22:00,34.1,26.0,30.15,West,277,1.0,1.0,72,0.00,,,0.00,Wunderground v.1.15,2013-01-06 14:22:00,
2013-01-06 09:23:00,34.1,26.0,30.15,West,278,1.0,1.0,72,0.00,,,0.00,Wunderground v.1.15,2013-01-06 14:23:00,
2013-01-06 09:25:00,34.2,26.1,30.15,West,277,1.0,1.0,72,0.00,,,0.00,Wunderground v.1.15,2013-01-06 14:25:00,
2013-01-06 09:28:00,34.4,26.3,30.15,West,277,0.0,1.0,72,0.00,,,0.00,Wunderground v.1.15,2013-01-06 14:28:00,
2013-01-06 09:30:00,34.4,26.3,30.15,West,277,0.0,0.0,72,0.00,,,0.00,Wunderground v.1.15,2013-01-06 14:30:00,
2013-01-06 09:31:00,34.4,26.3,30.15,West,275,0.0,3.0,72,0.00,,,0.00,Wunderground v.1.15,2013-01-06 14:31:00,
2013-01-06 09:34:00,34.4,26.0,30.15,West,279,0.0,3.0,71,0.00,,,0.00,Wunderground v.1.15,2013-01-06 14:34:00,
2013-01-06 09:38:00,34.8,26.4,30.15,West,279,0.0,3.0,71,0.00,,,0.00,Wunderground v.1.15,2013-01-06 14:38:00,
2013-01-06 09:39:00,34.8,26.4,30.15,West,279,0.0,3.0,71,0.00,,,0.00,Wunderground v.1.15,2013-01-06 14:39:00,
2013-01-06 09:41:00,34.9,26.4,30.15,WSW,252,1.0,2.0,71,0.00,,,0.00,Wunderground v.1.15,2013-01-06 14:41:00,
2013-01-06 09:43:00,34.9,26.4,30.15,West,279,1.0,2.0,71,0.00,,,0.00,Wunderground v.1.15,2013-01-06 14:43:00,
2013-01-06 09:47:00,35.0,26.5,30.15,West,269,1.0,3.0,71,0.00,,,0.00,Wunderground v.1.15,2013-01-06 14:47:00,
2013-01-06 09:49:00,35.0,26.5,30.15,West,275,1.0,3.0,71,0.00,,,0.00,Wunderground v.1.15,2013-01-06 14:49:00,
2013-01-06 09:50:00,35.1,26.6,30.15,West,273,1.0,1.0,71,0.00,,,0.00,Wunderground v.1.15,2013-01-06 14:50:00,
2013-01-06 09:52:00,35.2,26.7,30.16,West,276,1.0,1.0,71,0.00,,,0.00,Wunderground v.1.15,2013-01-06 14:52:00,
2013-01-06 09:56:00,35.4,26.9,30.15,West,269,0.0,2.0,71,0.00,,,0.00,Wunderground v.1.15,2013-01-06 14:56:00,
2013-01-06 09:57:00,35.4,26.6,30.15,West,269,1.0,2.0,70,0.00,,,0.00,Wunderground v.1.15,2013-01-06 14:57:00,
2013-01-06 10:03:00,35.6,26.8,30.15,WSW,252,2.0,3.0,70,0.00,,,0.00,Wunderground v.1.15,2013-01-06 15:03:00,
2013-01-06 10:04:00,35.7,26.9,30.15,WSW,253,2.0,3.0,70,0.00,,,0.00,Wunderground v.1.15,2013-01-06 15:04:00,
2013-01-06 10:05:00,35.7,26.9,30.16,WSW,256,2.0,3.0,70,0.00,,,0.00,Wunderground v.1.15,2013-01-06 15:05:00,
2013-01-06 10:09:00,35.9,27.1,30.15,West,275,1.0,4.0,70,0.00,,,0.00,Wunderground v.1.15,2013-01-06 15:09:00,
2013-01-06 10:13:00,36.0,27.2,30.15,West,270,1.0,1.0,70,0.00,,,0.00,Wunderground v.1.15,2013-01-06 15:13:00,
2013-01-06 10:14:00,36.0,27.2,30.15,West,271,1.0,1.0,70,0.00,,,0.00,Wunderground v.1.15,2013-01-06 15:14:00,
2013-01-06 10:16:00,36.0,27.2,30.15,West,264,1.0,3.0,70,0.00,,,0.00,Wunderground v.1.15,2013-01-06 15:16:00,
2013-01-06 10:19:00,36.1,27.3,30.15,West,267,1.0,4.0,70,0.00,,,0.00,Wunderground v.1.15,2013-01-06 15:19:00,
2013-01-06 10:21:00,36.1,26.9,30.15,West,279,1.0,4.0,69,0.00,,,0.00,Wunderground v.1.15,2013-01-06 15:21:00,
2013-01-06 10:23:00,36.1,26.9,30.15,WNW,299,1.0,4.0,69,0.00,,,0.00,Wunderground v.1.15,2013-01-06 15:23:00,
2013-01-06 10:27:00,36.2,27.4,30.15,WNW,294,1.0,4.0,70,0.00,,,0.00,Wunderground v.1.15,2013-01-06 15:27:00,
2013-01-06 10:30:00,36.3,27.4,30.15,West,275,1.0,1.0,70,0.00,,,0.00,Wunderground v.1.15,2013-01-06 15:30:00,
2013-01-06 10:32:00,36.4,27.2,30.15,West,277,1.0,4.0,69,0.00,,,0.00,Wunderground v.1.15,2013-01-06 15:32:00,
2013-01-06 10:34:00,36.5,27.3,30.15,WNW,293,1.0,4.0,69,0.00,,,0.00,Wunderground v.1.15,2013-01-06 15:34:00,
2013-01-06 10:35:00,36.6,27.7,30.15,West,277,1.0,4.0,70,0.00,,,0.00,Wunderground v.1.15,2013-01-06 15:35:00,
2013-01-06 10:40:00,36.7,27.5,30.15,WNW,290,1.0,2.0,69,0.00,,,0.00,Wunderground v.1.15,2013-01-06 15:40:00,
2013-01-06 10:45:00,36.7,27.5,30.15,WNW,289,2.0,5.0,69,0.00,,,0.00,Wunderground v.1.15,2013-01-06 15:45:00,
2013-01-06 10:46:00,36.7,27.5,30.15,West,267,2.0,5.0,69,0.00,,,0.00,Wunderground v.1.15,2013-01-06 15:46:00,
2013-01-06 10:50:00,36.8,27.6,30.15,West,277,3.0,3.0,69,0.00,,,0.00,Wunderground v.1.15,2013-01-06 15:50:00,
2013-01-06 10:52:00,36.7,27.5,30.15,WNW,288,2.0,4.0,69,0.00,,,0.00,Wunderground v.1.15,2013-01-06 15:52:00,
2013-01-06 10:53:00,36.7,27.5,30.15,West,271,3.0,4.0,69,0.00,,,0.00,Wunderground v.1.15,2013-01-06 15:53:00,
2013-01-06 10:55:00,36.8,27.6,30.15,West,272,2.0,4.0,69,0.00,,,0.00,Wunderground v.1.15,2013-01-06 15:55:00,
2013-01-06 10:56:00,36.8,27.6,30.15,West,264,2.0,4.0,69,0.00,,,0.00,Wunderground v.1.15,2013-01-06 15:56:00,
2013-01-06 10:58:00,36.9,27.7,30.15,West,276,2.0,4.0,69,0.00,,,0.00,Wunderground v.1.15,2013-01-06 15:58:00,
2013-01-06 11:01:00,37.2,28.0,30.14,West,263,2.0,6.0,69,0.00,,,0.00,Wunderground v.1.15,2013-01-06 16:01:00,
2013-01-06 11:02:00,37.3,28.1,30.14,West,261,2.0,6.0,69,0.00,,,0.00,Wunderground v.1.15,2013-01-06 16:02:00,
2013-01-06 11:03:00,37.4,28.2,30.14,WSW,254,1.0,6.0,69,0.00,,,0.00,Wunderground v.1.15,2013-01-06 16:03:00,
2013-01-06 11:06:00,37.5,27.9,30.14,West,259,2.0,6.0,68,0.00,,,0.00,Wunderground v.1.15,2013-01-06 16:06:00,
2013-01-06 11:08:00,37.7,28.1,30.14,WNW,289,1.0,6.0,68,0.00,,,0.00,Wunderground v.1.15,2013-01-06 16:08:00,
2013-01-06 11:11:00,38.0,28.4,30.14,WSW,253,1.0,7.0,68,0.00,,,0.00,Wunderground v.1.15,2013-01-06 16:11:00,
2013-01-06 11:12:00,37.9,27.9,30.14,WSW,256,2.0,7.0,67,0.00,,,0.00,Wunderground v.1.15,2013-01-06 16:12:00,
2013-01-06 11:16:00,38.1,28.1,30.13,West,261,2.0,7.0,67,0.00,,,0.00,Wunderground v.1.15,2013-01-06 16:16:00,
2013-01-06 11:17:00,38.1,28.1,30.14,WNW,286,2.0,7.0,67,0.00,,,0.00,Wunderground v.1.15,2013-01-06 16:17:00,
2013-01-06 11:18:00,38.1,28.5,30.13,West,278,2.0,7.0,68,0.00,,,0.00,Wunderground v.1.15,2013-01-06 16:18:00,
2013-01-06 11:20:00,38.2,28.2,30.13,WSW,258,2.0,4.0,67,0.00,,,0.00,Wunderground v.1.15,2013-01-06 16:20:00,
2013-01-06 11:23:00,38.2,28.2,30.13,West,268,2.0,4.0,67,0.00,,,0.00,Wunderground v.1.15,2013-01-06 16:23:00,
2013-01-06 11:25:00,38.2,28.2,30.13,WSW,249,2.0,4.0,67,0.00,,,0.00,Wunderground v.1.15,2013-01-06 16:25:00,
2013-01-06 11:26:00,38.1,28.1,30.13,West,273,2.0,4.0,67,0.00,,,0.00,Wunderground v.1.15,2013-01-06 16:26:00,
2013-01-06 11:29:00,38.0,28.0,30.13,West,277,1.0,5.0,67,0.00,,,0.00,Wunderground v.1.15,2013-01-06 16:29:00,
2013-01-06 11:31:00,38.1,28.5,30.12,WNW,286,2.0,7.0,68,0.00,,,0.00,Wunderground v.1.15,2013-01-06 16:31:00,
2013-01-06 11:32:00,38.0,28.0,30.12,West,280,2.0,7.0,67,0.00,,,0.00,Wunderground v.1.15,2013-01-06 16:32:00,
2013-01-06 11:34:00,38.0,28.4,30.12,West,279,2.0,7.0,68,0.00,,,0.00,Wunderground v.1.15,2013-01-06 16:34:00,
2013-01-06 11:35:00,38.0,28.4,30.12,West,265,2.0,7.0,68,0.00,,,0.00,Wunderground v.1.15,2013-01-06 16:35:00,
2013-01-06 11:37:00,38.0,28.4,30.12,West,272,2.0,7.0,68,0.00,,,0.00,Wunderground v.1.15,2013-01-06 16:37:00,
2013-01-06 11:38:00,38.0,28.4,30.12,West,279,2.0,7.0,68,0.00,,,0.00,Wunderground v.1.15,2013-01-06 16:38:00,
2013-01-06 11:40:00,38.1,28.8,30.12,West,268,2.0,2.0,69,0.00,,,0.00,Wunderground v.1.15,2013-01-06 16:40:00,
2013-01-06 11:41:00,38.0,28.4,30.12,West,267,2.0,2.0,68,0.00,,,0.00,Wunderground v.1.15,2013-01-06 16:41:00,
2013-01-06 11:45:00,38.0,28.7,30.11,West,272,2.0,4.0,69,0.00,,,0.00,Wunderground v.1.15,2013-01-06 16:45:00,
2013-01-06 11:46:00,38.0,28.7,30.11,West,275,2.0,4.0,69,0.00,,,0.00,Wunderground v.1.15,2013-01-06 16:46:00,
2013-01-06 11:49:00,38.0,28.4,30.11,WSW,251,2.0,6.0,68,0.00,,,0.00,Wunderground v.1.15,2013-01-06 16:49:00,
2013-01-06 11:51:00,38.0,28.4,30.11,West,264,2.0,3.0,68,0.00,,,0.00,Wunderground v.1.15,2013-01-06 16:51:00,
2013-01-06 11:52:00,37.9,28.3,30.11,WNW,292,2.0,3.0,68,0.00,,,0.00,Wunderground v.1.15,2013-01-06 16:52:00,
2013-01-06 11:56:00,37.9,27.9,30.11,West,281,3.0,5.0,67,0.00,,,0.00,Wunderground v.1.15,2013-01-06 16:56:00,
2013-01-06 11:57:00,37.9,27.9,30.11,West,277,4.0,6.0,67,0.00,,,0.00,Wunderground v.1.15,2013-01-06 16:57:00,
2013-01-06 11:59:00,37.9,27.9,30.10,WNW,302,4.0,6.0,67,0.00,,,0.00,Wunderground v.1.15,2013-01-06 16:59:00,
2013-01-06 12:02:00,37.9,27.9,30.10,West,259,5.0,7.0,67,0.00,,,0.00,Wunderground v.1.15,2013-01-06 17:02:00,
2013-01-06 12:05:00,38.0,28.4,30.10,West,275,4.0,7.0,68,0.00,,,0.00,Wunderground v.1.15,2013-01-06 17:05:00,
2013-01-06 12:06:00,38.0,28.0,30.10,West,271,4.0,7.0,67,0.00,,,0.00,Wunderground v.1.15,2013-01-06 17:06:00,
2013-01-06 12:07:00,38.0,28.0,30.10,WNW,290,4.0,7.0,67,0.00,,,0.00,Wunderground v.1.15,2013-01-06 17:07:00,
2013-01-06 12:08:00,38.0,28.0,30.10,NW,309,4.0,8.0,67,0.00,,,0.00,Wunderground v.1.15,2013-01-06 17:08:00,
2013-01-06 12:11:00,37.9,28.3,30.10,West,273,4.0,5.0,68,0.00,,,0.00,Wunderground v.1.15,2013-01-06 17:11:00,
2013-01-06 12:12:00,37.9,28.3,30.09,WSW,254,3.0,5.0,68,0.00,,,0.00,Wunderground v.1.15,2013-01-06 17:12:00,
2013-01-06 12:17:00,37.8,27.8,30.09,West,264,4.0,5.0,67,0.00,,,0.00,Wunderground v.1.15,2013-01-06 17:17:00,
2013-01-06 12:18:00,37.8,27.8,30.09,West,274,4.0,5.0,67,0.00,,,0.00,Wunderground v.1.15,2013-01-06 17:18:00,
2013-01-06 12:21:00,37.8,28.2,30.08,West,274,4.0,4.0,68,0.00,,,0.00,Wunderground v.1.15,2013-01-06 17:21:00,
2013-01-06 12:22:00,37.9,28.3,30.08,West,267,4.0,4.0,68,0.00,,,0.00,Wunderground v.1.15,2013-01-06 17:22:00,
2013-01-06 12:24:00,37.9,27.9,30.08,West,263,4.0,4.0,67,0.00,,,0.00,Wunderground v.1.15,2013-01-06 17:24:00,
2013-01-06 12:26:00,37.9,27.9,30.08,WNW,293,4.0,6.0,67,0.00,,,0.00,Wunderground v.1.15,2013-01-06 17:26:00,
2013-01-06 12:28:00,38.0,28.0,30.08,WSW,253,3.0,6.0,67,0.00,,,0.00,Wunderground v.1.15,2013-01-06 17:28:00,
2013-01-06 12:33:00,38.1,28.1,30.08,WNW,294,3.0,10.0,67,0.00,,,0.00,Wunderground v.1.15,2013-01-06 17:33:00,
2013-01-06 12:34:00,38.1,28.1,30.08,NW,317,3.0,10.0,67,0.00,,,0.00,Wunderground v.1.15,2013-01-06 17:34:00,
2013-01-06 12:35:00,38.1,28.1,30.08,WNW,286,3.0,10.0,67,0.00,,,0.00,Wunderground v.1.15,2013-01-06 17:35:00,
2013-01-06 12:40:00,38.2,28.2,30.08,West,280,2.0,2.0,67,0.00,,,0.00,Wunderground v.1.15,2013-01-06 17:40:00,
2013-01-06 12:41:00,38.2,28.2,30.08,WNW,284,2.0,2.0,67,0.00,,,0.00,Wunderground v.1.15,2013-01-06 17:41:00,
2013-01-06 12:42:00,38.3,28.7,30.08,West,261,1.0,4.0,68,0.00,,,0.00,Wunderground v.1.15,2013-01-06 17:42:00,
2013-01-06 12:46:00,38.3,28.3,30.08,West,274,1.0,4.0,67,0.00,,,0.00,Wunderground v.1.15,2013-01-06 17:46:00,
2013-01-06 12:48:00,38.4,28.8,30.07,West,269,1.0,4.0,68,0.00,,,0.00,Wunderground v.1.15,2013-01-06 17:48:00,
2013-01-06 12:49:00,38.4,28.4,30.07,West,263,1.0,4.0,67,0.00,,,0.00,Wunderground v.1.15,2013-01-06 17:49:00,
2013-01-06 12:50:00,38.4,28.4,30.07,WSW,255,1.0,2.0,67,0.00,,,0.00,Wunderground v.1.15,2013-01-06 17:50:00,
2013-01-06 12:54:00,38.2,27.8,30.07,SW,230,2.0,7.0,66,0.00,,,0.00,Wunderground v.1.15,2013-01-06 17:54:00,
2013-01-06 12:55:00,38.2,27.8,30.07,West,275,2.0,7.0,66,0.00,,,0.00,Wunderground v.1.15,2013-01-06 17:55:00,
2013-01-06 12:57:00,38.2,27.8,30.07,West,261,3.0,7.0,66,0.00,,,0.00,Wunderground v.1.15,2013-01-06 17:57:00,
2013-01-06 13:01:00,38.1,27.7,30.07,WNW,299,4.0,8.0,66,0.00,,,0.00,Wunderground v.1.15,2013-01-06 18:01:00,
2013-01-06 13:03:00,38.1,28.1,30.07,West,263,4.0,8.0,67,0.00,,,0.00,Wunderground v.1.15,2013-01-06 18:03:00,
2013-01-06 13:06:00,38.1,27.7,30.07,WSW,250,4.0,8.0,66,0.00,,,0.00,Wunderground v.1.15,2013-01-06 18:06:00,
2013-01-06 13:08:00,38.2,27.8,30.07,West,273,4.0,8.0,66,0.00,,,0.00,Wunderground v.1.15,2013-01-06 18:08:00,
2013-01-06 13:09:00,38.2,27.8,30.07,WSW,244,4.0,8.0,66,0.00,,,0.00,Wunderground v.1.15,2013-01-06 18:09:00,
2013-01-06 13:11:00,38.1,27.7,30.07,WNW,285,4.0,8.0,66,0.00,,,0.00,Wunderground v.1.15,2013-01-06 18:11:00,
2013-01-06 13:14:00,38.1,28.1,30.06,WNW,292,4.0,8.0,67,0.00,,,0.00,Wunderground v.1.15,2013-01-06 18:14:00,
2013-01-06 13:15:00,38.1,27.7,30.06,West,273,3.0,8.0,66,0.00,,,0.00,Wunderground v.1.15,2013-01-06 18:15:00,
2013-01-06 13:17:00,38.2,27.8,30.06,West,279,3.0,8.0,66,0.00,,,0.00,Wunderground v.1.15,2013-01-06 18:17:00,
2013-01-06 13:20:00,38.2,28.2,30.06,NW,306,3.0,3.0,67,0.00,,,0.00,Wunderground v.1.15,2013-01-06 18:20:00,
2013-01-06 13:21:00,38.2,28.6,30.06,West,271,3.0,3.0,68,0.00,,,0.00,Wunderground v.1.15,2013-01-06 18:21:00,
2013-01-06 13:24:00,38.2,28.2,30.06,West,266,3.0,6.0,67,0.00,,,0.00,Wunderground v.1.15,2013-01-06 18:24:00,
2013-01-06 13:26:00,38.1,27.7,30.06,NW,319,3.0,6.0,66,0.00,,,0.00,Wunderground v.1.15,2013-01-06 18:26:00,
2013-01-06 13:28:00,38.1,28.1,30.06,WNW,283,4.0,6.0,67,0.00,,,0.00,Wunderground v.1.15,2013-01-06 18:28:00,
2013-01-06 13:30:00,38.1,28.1,30.06,West,259,4.0,4.0,67,0.00,,,0.00,Wunderground v.1.15,2013-01-06 18:30:00,
2013-01-06 13:31:00,38.1,27.7,30.06,West,261,4.0,10.0,66,0.00,,,0.00,Wunderground v.1.15,2013-01-06 18:31:00,
2013-01-06 13:32:00,38.2,27.8,30.06,WNW,291,4.0,10.0,66,0.00,,,0.00,Wunderground v.1.15,2013-01-06 18:32:00,
2013-01-06 13:35:00,38.2,27.8,30.06,West,281,4.0,10.0,66,0.00,,,0.00,Wunderground v.1.15,2013-01-06 18:35:00,
2013-01-06 13:36:00,38.2,28.2,30.06,West,280,4.0,10.0,67,0.00,,,0.00,Wunderground v.1.15,2013-01-06 18:36:00,
2013-01-06 13:38:00,38.1,28.1,30.06,West,277,3.0,10.0,67,0.00,,,0.00,Wunderground v.1.15,2013-01-06 18:38:00,
2013-01-06 13:39:00,38.1,28.1,30.06,West,281,3.0,10.0,67,0.00,,,0.00,Wunderground v.1.15,2013-01-06 18:39:00,
2013-01-06 13:42:00,38.1,28.1,30.06,West,277,3.0,3.0,67,0.00,,,0.00,Wunderground v.1.15,2013-01-06 18:42:00,
2013-01-06 13:44:00,38.2,28.6,30.06,WNW,292,3.0,3.0,68,0.00,,,0.00,Wunderground v.1.15,2013-01-06 18:44:00,
2013-01-06 13:46:00,38.2,28.6,30.06,WNW,286,2.0,4.0,68,0.00,,,0.00,Wunderground v.1.15,2013-01-06 18:46:00,
2013-01-06 13:51:00,38.2,28.2,30.06,West,281,3.0,3.0,67,0.00,,,0.00,Wunderground v.1.15,2013-01-06 18:51:00,
2013-01-06 13:52:00,38.2,28.6,30.06,West,272,3.0,3.0,68,0.00,,,0.00,Wunderground v.1.15,2013-01-06 18:52:00,
2013-01-06 13:55:00,38.1,28.1,30.06,West,263,3.0,3.0,67,0.00,,,0.00,Wunderground v.1.15,2013-01-06 18:55:00,
2013-01-06 13:57:00,38.1,28.5,30.06,West,274,3.0,6.0,68,0.00,,,0.00,Wunderground v.1.15,2013-01-06 18:57:00,
2013-01-06 13:58:00,38.1,28.1,30.06,West,259,3.0,6.0,67,0.00,,,0.00,Wunderground v.1.15,2013-01-06 18:58:00,
2013-01-06 14:02:00,38.2,28.6,30.06,WNW,284,3.0,10.0,68,0.00,,,0.00,Wunderground v.1.15,2013-01-06 19:02:00,
2013-01-06 14:03:00,38.2,28.6,30.06,West,278,3.0,10.0,68,0.00,,,0.00,Wunderground v.1.15,2013-01-06 19:03:00,
2013-01-06 14:05:00,38.2,28.6,30.06,West,263,3.0,10.0,68,0.00,,,0.00,Wunderground v.1.15,2013-01-06 19:05:00,
2013-01-06 14:06:00,38.3,28.3,30.06,West,280,3.0,10.0,67,0.00,,,0.00,Wunderground v.1.15,2013-01-06 19:06:00,
2013-01-06 14:11:00,38.3,28.3,30.06,West,273,3.0,3.0,67,0.00,,,0.00,Wunderground v.1.15,2013-01-06 19:11:00,
2013-01-06 14:12:00,38.4,28.4,30.06,West,281,2.0,3.0,67,0.00,,,0.00,Wunderground v.1.15,2013-01-06 19:12:00,
2013-01-06 14:15:00,38.3,27.9,30.05,West,278,3.0,5.0,66,0.00,,,0.00,Wunderground v.1.15,2013-01-06 19:15:00,
2013-01-06 14:18:00,38.2,28.2,30.05,West,267,3.0,6.0,67,0.00,,,0.00,Wunderground v.1.15,2013-01-06 19:18:00,
2013-01-06 14:20:00,38.2,28.2,30.06,West,265,4.0,5.0,67,0.00,,,0.00,Wunderground v.1.15,2013-01-06 19:20:00,
2013-01-06 14:23:00,38.2,28.2,30.05,West,278,4.0,5.0,67,0.00,,,0.00,Wunderground v.1.15,2013-01-06 19:23:00,
2013-01-06 14:24:00,38.2,28.2,30.05,WSW,240,4.0,5.0,67,0.00,,,0.01,Wunderground v.1.15,2013-01-06 19:24:00,
2013-01-06 14:26:00,38.2,28.2,30.05,West,267,4.0,5.0,67,0.00,,,0.01,Wunderground v.1.15,2013-01-06 19:26:00,
2013-01-06 14:31:00,38.2,28.2,30.05,West,273,3.0,8.0,67,0.00,,,0.01,Wunderground v.1.15,2013-01-06 19:31:00,
2013-01-06 14:32:00,38.2,28.2,30.06,WSW,257,3.0,8.0,67,0.00,,,0.01,Wunderground v.1.15,2013-01-06 19:32:00,
2013-01-06 14:35:00,38.2,28.2,30.06,West,269,3.0,8.0,67,0.00,,,0.01,Wunderground v.1.15,2013-01-06 19:35:00,
2013-01-06 14:38:00,38.3,28.3,30.06,West,278,3.0,8.0,67,0.00,,,0.01,Wunderground v.1.15,2013-01-06 19:38:00,
2013-01-06 14:39:00,38.3,28.3,30.06,West,273,3.0,8.0,67,0.00,,,0.01,Wunderground v.1.15,2013-01-06 19:39:00,
2013-01-06 14:40:00,38.3,28.3,30.06,West,276,3.0,3.0,67,0.00,,,0.01,Wunderground v.1.15,2013-01-06 19:40:00,
2013-01-06 14:44:00,38.4,28.4,30.06,WSW,252,2.0,4.0,67,0.00,,,0.01,Wunderground v.1.15,2013-01-06 19:44:00,
2013-01-06 14:46:00,38.3,28.7,30.06,West,267,2.0,4.0,68,0.00,,,0.02,Wunderground v.1.15,2013-01-06 19:46:00,
2013-01-06 14:50:00,38.2,28.9,30.06,West,267,1.0,1.0,69,0.00,,,0.02,Wunderground v.1.15,2013-01-06 19:50:00,
2013-01-06 14:52:00,38.2,28.6,30.06,WNW,288,1.0,4.0,68,0.00,,,0.02,Wunderground v.1.15,2013-01-06 19:52:00,
2013-01-06 14:56:00,38.2,28.6,30.06,West,271,1.0,4.0,68,0.00,,,0.02,Wunderground v.1.15,2013-01-06 19:56:00,
2013-01-06 15:01:00,38.4,28.4,30.06,WNW,291,2.0,8.0,67,0.00,,,0.02,Wunderground v.1.15,2013-01-06 20:01:00,
2013-01-06 15:03:00,38.4,28.4,30.06,West,270,2.0,8.0,67,0.00,,,0.02,Wunderground v.1.15,2013-01-06 20:03:00,
2013-01-06 15:08:00,38.4,28.4,30.06,WNW,286,2.0,8.0,67,0.00,,,0.02,Wunderground v.1.15,2013-01-06 20:08:00,
2013-01-06 15:09:00,38.4,28.4,30.06,WNW,291,2.0,8.0,67,0.00,,,0.02,Wunderground v.1.15,2013-01-06 20:09:00,
2013-01-06 15:11:00,38.4,28.4,30.06,West,273,2.0,2.0,67,0.00,,,0.02,Wunderground v.1.15,2013-01-06 20:11:00,
2013-01-06 15:13:00,38.3,28.3,30.06,NNW,329,2.0,3.0,67,0.00,,,0.02,Wunderground v.1.15,2013-01-06 20:13:00,
2013-01-06 15:16:00,38.4,28.4,30.06,West,264,2.0,3.0,67,0.00,,,0.02,Wunderground v.1.15,2013-01-06 20:16:00,
2013-01-06 15:17:00,38.4,28.4,30.06,West,265,2.0,3.0,67,0.00,,,0.02,Wunderground v.1.15,2013-01-06 20:17:00,
2013-01-06 15:21:00,38.3,28.3,30.06,NW,304,1.0,3.0,67,0.00,,,0.03,Wunderground v.1.15,2013-01-06 20:21:00,
2013-01-06 15:23:00,38.3,28.3,30.06,West,271,2.0,3.0,67,0.00,,,0.03,Wunderground v.1.15,2013-01-06 20:23:00,
2013-01-06 15:24:00,38.3,28.7,30.06,West,273,1.0,3.0,68,0.00,,,0.03,Wunderground v.1.15,2013-01-06 20:24:00,
2013-01-06 15:28:00,38.3,28.7,30.06,WNW,286,1.0,5.0,68,0.00,,,0.03,Wunderground v.1.15,2013-01-06 20:28:00,
2013-01-06 15:31:00,38.2,28.9,30.06,WNW,288,1.0,8.0,69,0.00,,,0.03,Wunderground v.1.15,2013-01-06 20:31:00,
2013-01-06 15:33:00,38.1,28.5,30.06,WNW,288,1.0,8.0,68,0.00,,,0.03,Wunderground v.1.15,2013-01-06 20:33:00,
2013-01-06 15:34:00,38.1,28.5,30.06,West,273,1.0,8.0,68,0.00,,,0.03,Wunderground v.1.15,2013-01-06 20:34:00,
2013-01-06 15:37:00,38.1,28.8,30.06,West,265,1.0,8.0,69,0.00,,,0.03,Wunderground v.1.15,2013-01-06 20:37:00,
2013-01-06 15:38:00,38.1,28.5,30.06,West,280,1.0,8.0,68,0.00,,,0.03,Wunderground v.1.15,2013-01-06 20:38:00,
2013-01-06 15:40:00,38.1,28.8,30.06,NNW,333,1.0,5.0,69,0.00,,,0.03,Wunderground v.1.15,2013-01-06 20:40:00,
2013-01-06 15:41:00,38.1,28.5,30.06,West,281,2.0,5.0,68,0.00,,,0.03,Wunderground v.1.15,2013-01-06 20:41:00,
2013-01-06 15:46:00,38.1,28.5,30.06,West,280,2.0,5.0,68,0.00,,,0.04,Wunderground v.1.15,2013-01-06 20:46:00,
2013-01-06 15:48:00,38.1,28.8,30.06,WNW,296,2.0,5.0,69,0.00,,,0.04,Wunderground v.1.15,2013-01-06 20:48:00,
2013-01-06 15:51:00,38.2,28.6,30.06,West,277,2.0,5.0,68,0.00,,,0.04,Wunderground v.1.15,2013-01-06 20:51:00,
2013-01-06 15:54:00,38.2,28.6,30.06,West,268,2.0,5.0,68,0.00,,,0.04,Wunderground v.1.15,2013-01-06 20:54:00,
2013-01-06 15:57:00,38.1,28.5,30.06,WNW,282,2.0,5.0,68,0.00,,,0.04,Wunderground v.1.15,2013-01-06 20:57:00,
2013-01-06 16:00:00,38.1,28.8,30.06,WNW,294,1.0,1.0,69,0.00,,,0.04,Wunderground v.1.15,2013-01-06 21:00:00,
2013-01-06 16:02:00,38.1,28.8,30.06,WNW,298,1.0,9.0,69,0.00,,,0.04,Wunderground v.1.15,2013-01-06 21:02:00,
2013-01-06 16:04:00,38.0,28.7,30.06,WNW,282,1.0,9.0,69,0.00,,,0.04,Wunderground v.1.15,2013-01-06 21:04:00,
2013-01-06 16:06:00,38.0,28.7,30.06,West,272,1.0,9.0,69,0.00,,,0.04,Wunderground v.1.15,2013-01-06 21:06:00,
2013-01-06 16:08:00,37.9,28.6,30.06,West,279,1.0,9.0,69,0.00,,,0.04,Wunderground v.1.15,2013-01-06 21:08:00,
2013-01-06 16:09:00,38.0,28.7,30.06,West,279,1.0,9.0,69,0.00,,,0.04,Wunderground v.1.15,2013-01-06 21:09:00,
2013-01-06 16:12:00,38.0,28.7,30.06,West,268,1.0,1.0,69,0.00,,,0.04,Wunderground v.1.15,2013-01-06 21:12:00,
2013-01-06 16:14:00,37.9,28.6,30.06,West,277,1.0,1.0,69,0.00,,,0.04,Wunderground v.1.15,2013-01-06 21:14:00,
2013-01-06 16:15:00,37.9,29.0,30.06,WNW,287,1.0,1.0,70,0.00,,,0.04,Wunderground v.1.15,2013-01-06 21:15:00,
2013-01-06 16:18:00,37.9,29.0,30.05,West,281,1.0,2.0,70,0.00,,,0.04,Wunderground v.1.15,2013-01-06 21:18:00,
2013-01-06 16:20:00,37.9,29.0,30.06,WNW,292,1.0,2.0,70,0.00,,,0.04,Wunderground v.1.15,2013-01-06 21:20:00,
2013-01-06 16:23:00,37.8,28.9,30.05,WNW,296,1.0,5.0,70,0.00,,,0.04,Wunderground v.1.15,2013-01-06 21:23:00,
2013-01-06 16:24:00,37.7,28.8,30.05,WNW,286,1.0,5.0,70,0.00,,,0.04,Wunderground v.1.15,2013-01-06 21:24:00,
2013-01-06 16:25:00,37.8,28.9,30.06,West,276,1.0,5.0,70,0.00,,,0.04,Wunderground v.1.15,2013-01-06 21:25:00,
2013-01-06 16:29:00,37.8,28.9,30.06,West,281,1.0,5.0,70,0.00,,,0.04,Wunderground v.1.15,2013-01-06 21:29:00,
2013-01-06 16:30:00,37.8,28.9,30.06,West,273,1.0,1.0,70,0.00,,,0.04,Wunderground v.1.15,2013-01-06 21:30:00,
2013-01-06 16:35:00,37.7,28.8,30.06,WNW,288,1.0,7.0,70,0.00,,,0.05,Wunderground v.1.15,2013-01-06 21:35:00,
2013-01-06 16:39:00,37.7,28.8,30.06,West,271,1.0,7.0,70,0.00,,,0.05,Wunderground v.1.15,2013-01-06 21:39:00,
2013-01-06 16:40:00,37.6,28.7,30.06,West,279,1.0,1.0,70,0.00,,,0.05,Wunderground v.1.15,2013-01-06 21:40:00,
2013-01-06 16:44:00,37.6,28.7,30.06,West,268,1.0,4.0,70,0.00,,,0.05,Wunderground v.1.15,2013-01-06 21:44:00,
2013-01-06 16:45:00,37.6,28.7,30.06,WNW,286,1.0,4.0,70,0.00,,,0.05,Wunderground v.1.15,2013-01-06 21:45:00,
2013-01-06 16:47:00,37.6,28.7,30.06,West,281,1.0,4.0,70,0.00,,,0.05,Wunderground v.1.15,2013-01-06 21:47:00,
2013-01-06 16:49:00,37.5,28.6,30.06,WNW,283,1.0,4.0,70,0.00,,,0.05,Wunderground v.1.15,2013-01-06 21:49:00,
2013-01-06 16:51:00,37.5,28.6,30.06,West,275,1.0,3.0,70,0.00,,,0.05,Wunderground v.1.15,2013-01-06 21:51:00,
2013-01-06 16:52:00,37.5,28.6,30.06,West,264,1.0,3.0,70,0.00,,,0.05,Wunderground v.1.15,2013-01-06 21:52:00,
2013-01-06 16:53:00,37.5,28.6,30.06,WNW,290,1.0,3.0,70,0.00,,,0.05,Wunderground v.1.15,2013-01-06 21:53:00,
2013-01-06 16:55:00,37.5,28.6,30.06,West,279,1.0,3.0,70,0.00,,,0.05,Wunderground v.1.15,2013-01-06 21:55:00,
2013-01-06 16:57:00,37.5,28.6,30.06,West,272,1.0,3.0,70,0.00,,,0.05,Wunderground v.1.15,2013-01-06 21:57:00,
2013-01-06 16:58:00,37.5,28.6,30.06,West,272,1.0,3.0,70,0.00,,,0.05,Wunderground v.1.15,2013-01-06 21:58:00,
2013-01-06 17:02:00,37.4,28.9,30.06,West,280,0.0,8.0,71,0.00,,,0.05,Wunderground v.1.15,2013-01-06 22:02:00,
2013-01-06 17:04:00,37.4,28.9,30.06,West,279,0.0,8.0,71,0.00,,,0.05,Wunderground v.1.15,2013-01-06 22:04:00,
2013-01-06 17:08:00,37.3,28.4,30.06,West,273,0.0,8.0,70,0.00,,,0.05,Wunderground v.1.15,2013-01-06 22:08:00,
2013-01-06 17:11:00,37.3,28.4,30.07,West,281,1.0,4.0,70,0.00,,,0.05,Wunderground v.1.15,2013-01-06 22:11:00,
2013-01-06 17:13:00,37.3,28.8,30.07,West,272,1.0,4.0,71,0.00,,,0.05,Wunderground v.1.15,2013-01-06 22:13:00,
2013-01-06 17:16:00,37.3,28.8,30.07,West,264,1.0,4.0,71,0.00,,,0.05,Wunderground v.1.15,2013-01-06 22:16:00,
2013-01-06 17:17:00,37.4,28.5,30.07,West,272,2.0,4.0,70,0.00,,,0.05,Wunderground v.1.15,2013-01-06 22:17:00,
2013-01-06 17:18:00,37.4,28.9,30.07,West,272,1.0,4.0,71,0.00,,,0.05,Wunderground v.1.15,2013-01-06 22:18:00,
2013-01-06 17:21:00,37.3,28.8,30.07,West,272,1.0,1.0,71,0.00,,,0.05,Wunderground v.1.15,2013-01-06 22:21:00,
2013-01-06 17:23:00,37.2,28.7,30.07,West,271,1.0,1.0,71,0.00,,,0.06,Wunderground v.1.15,2013-01-06 22:23:00,
2013-01-06 17:25:00,37.2,28.7,30.07,West,273,1.0,1.0,71,0.00,,,0.06,Wunderground v.1.15,2013-01-06 22:25:00,
2013-01-06 17:28:00,37.1,28.6,30.07,West,273,0.0,1.0,71,0.00,,,0.06,Wunderground v.1.15,2013-01-06 22:28:00,
2013-01-06 17:29:00,37.1,28.6,30.07,West,275,0.0,1.0,71,0.00,,,0.06,Wunderground v.1.15,2013-01-06 22:29:00,
2013-01-06 17:31:00,37.1,28.6,30.07,West,277,0.0,5.0,71,0.00,,,0.06,Wunderground v.1.15,2013-01-06 22:31:00,
2013-01-06 17:33:00,37.2,28.7,30.07,West,277,0.0,5.0,71,0.00,,,0.06,Wunderground v.1.15,2013-01-06 22:33:00,
2013-01-06 17:36:00,37.1,28.6,30.07,West,277,0.0,5.0,71,0.00,,,0.06,Wunderground v.1.15,2013-01-06 22:36:00,
2013-01-06 17:38:00,37.1,28.6,30.07,West,277,0.0,5.0,71,0.00,,,0.06,Wunderground v.1.15,2013-01-06 22:38:00,
2013-01-06 17:40:00,37.0,28.8,30.07,West,279,0.0,3.0,72,0.00,,,0.06,Wunderground v.1.15,2013-01-06 22:40:00,
2013-01-06 17:43:00,36.9,28.4,30.07,West,281,1.0,3.0,71,0.00,,,0.06,Wunderground v.1.15,2013-01-06 22:43:00,
2013-01-06 17:45:00,36.9,28.4,30.07,West,280,1.0,3.0,71,0.00,,,0.06,Wunderground v.1.15,2013-01-06 22:45:00,
2013-01-06 17:46:00,36.9,28.7,30.07,West,279,1.0,3.0,72,0.00,,,0.06,Wunderground v.1.15,2013-01-06 22:46:00,
2013-01-06 17:49:00,37.0,28.5,30.07,West,272,1.0,3.0,71,0.00,,,0.06,Wunderground v.1.15,2013-01-06 22:49:00,
2013-01-06 17:50:00,37.0,28.5,30.08,West,279,1.0,1.0,71,0.00,,,0.06,Wunderground v.1.15,2013-01-06 22:50:00,
2013-01-06 17:53:00,36.9,28.7,30.08,WNW,286,1.0,3.0,72,0.00,,,0.06,Wunderground v.1.15,2013-01-06 22:53:00,
2013-01-06 17:55:00,36.9,28.7,30.08,WNW,285,1.0,3.0,72,0.00,,,0.06,Wunderground v.1.15,2013-01-06 22:55:00,
2013-01-06 17:56:00,36.9,28.7,30.08,West,275,1.0,3.0,72,0.00,,,0.06,Wunderground v.1.15,2013-01-06 22:56:00,
2013-01-06 17:57:00,36.9,28.7,30.08,WNW,284,1.0,3.0,72,0.00,,,0.06,Wunderground v.1.15,2013-01-06 22:57:00,
2013-01-06 18:01:00,36.9,28.7,30.08,WNW,295,2.0,3.0,72,0.00,,,0.06,Wunderground v.1.15,2013-01-06 23:01:00,
2013-01-06 18:03:00,36.9,28.7,30.08,West,275,2.0,5.0,72,0.00,,,0.06,Wunderground v.1.15,2013-01-06 23:03:00,
2013-01-06 18:04:00,36.9,28.7,30.08,WNW,289,2.0,5.0,72,0.00,,,0.06,Wunderground v.1.15,2013-01-06 23:04:00,
2013-01-06 18:09:00,36.8,28.6,30.08,WNW,292,2.0,5.0,72,0.00,,,0.06,Wunderground v.1.15,2013-01-06 23:09:00,
2013-01-06 18:10:00,36.8,29.0,30.08,West,279,2.0,2.0,73,0.00,,,0.06,Wunderground v.1.15,2013-01-06 23:10:00,
2013-01-06 18:11:00,36.8,28.6,30.08,WNW,296,2.0,6.0,72,0.00,,,0.06,Wunderground v.1.15,2013-01-06 23:11:00,
2013-01-06 18:15:00,37.1,28.6,30.08,NW,304,3.0,6.0,71,0.00,,,0.06,Wunderground v.1.15,2013-01-06 23:15:00,
2013-01-06 18:16:00,37.1,28.9,30.08,WNW,303,3.0,6.0,72,0.00,,,0.06,Wunderground v.1.15,2013-01-06 23:16:00,
2013-01-06 18:17:00,37.2,28.7,30.09,WNW,296,3.0,6.0,71,0.00,,,0.06,Wunderground v.1.15,2013-01-06 23:17:00,
2013-01-06 18:19:00,37.2,29.0,30.08,WNW,290,4.0,6.0,72,0.00,,,0.06,Wunderground v.1.15,2013-01-06 23:19:00,
2013-01-06 18:21:00,37.2,28.7,30.09,WNW,283,4.0,5.0,71,0.00,,,0.06,Wunderground v.1.15,2013-01-06 23:21:00,
2013-01-06 18:24:00,37.1,28.9,30.09,WNW,296,4.0,5.0,72,0.00,,,0.06,Wunderground v.1.15,2013-01-06 23:24:00,
2013-01-06 18:27:00,37.1,28.9,30.08,West,279,3.0,6.0,72,0.00,,,0.06,Wunderground v.1.15,2013-01-06 23:27:00,
2013-01-06 18:28:00,37.2,28.7,30.09,WNW,288,3.0,6.0,71,0.00,,,0.06,Wunderground v.1.15,2013-01-06 23:28:00,
2013-01-06 18:31:00,37.3,29.1,30.09,WNW,284,3.0,6.0,72,0.00,,,0.06,Wunderground v.1.15,2013-01-06 23:31:00,
2013-01-06 18:33:00,37.2,29.0,30.09,WNW,288,3.0,6.0,72,0.00,,,0.06,Wunderground v.1.15,2013-01-06 23:33:00,
2013-01-06 18:37:00,37.1,28.9,30.09,NW,311,3.0,7.0,72,0.00,,,0.06,Wunderground v.1.15,2013-01-06 23:37:00,
2013-01-06 18:39:00,37.2,29.0,30.09,WNW,291,3.0,7.0,72,0.00,,,0.06,Wunderground v.1.15,2013-01-06 23:39:00,
2013-01-06 18:40:00,37.2,29.0,30.09,WNW,286,3.0,3.0,72,0.00,,,0.06,Wunderground v.1.15,2013-01-06 23:40:00,
2013-01-06 18:42:00,37.2,29.0,30.09,WNW,294,4.0,6.0,72,0.00,,,0.06,Wunderground v.1.15,2013-01-06 23:42:00,
2013-01-06 18:47:00,37.2,29.0,30.09,WNW,301,3.0,6.0,72,0.00,,,0.06,Wunderground v.1.15,2013-01-06 23:47:00,
2013-01-06 18:50:00,37.2,29.0,30.10,WNW,293,3.0,3.0,72,0.00,,,0.06,Wunderground v.1.15,2013-01-06 23:50:00,
2013-01-06 18:51:00,37.1,28.9,30.10,WNW,294,3.0,3.0,72,0.00,,,0.06,Wunderground v.1.15,2013-01-06 23:51:00,
2013-01-06 18:53:00,37.1,28.9,30.10,WNW,283,3.0,3.0,72,0.00,,,0.06,Wunderground v.1.15,2013-01-06 23:53:00,
2013-01-06 18:56:00,37.1,28.9,30.10,West,281,3.0,4.0,72,0.00,,,0.06,Wunderground v.1.15,2013-01-06 23:56:00,
2013-01-06 18:57:00,37.1,28.9,30.10,WNW,286,3.0,4.0,72,0.00,,,0.06,Wunderground v.1.15,2013-01-06 23:57:00,
2013-01-06 18:59:00,37.1,28.9,30.10,WNW,282,3.0,4.0,72,0.00,,,0.06,Wunderground v.1.15,2013-01-06 23:59:00,
2013-01-06 19:04:00,37.1,28.9,30.10,West,276,3.0,7.0,72,0.00,,,0.06,Wunderground v.1.15,2013-01-07 00:04:00,
2013-01-06 19:06:00,37.1,28.9,30.10,West,276,3.0,7.0,72,0.00,,,0.06,Wunderground v.1.15,2013-01-07 00:06:00,
2013-01-06 19:09:00,37.0,28.8,30.10,West,269,2.0,7.0,72,0.00,,,0.07,Wunderground v.1.15,2013-01-07 00:09:00,
2013-01-06 19:13:00,37.0,28.8,30.10,WNW,291,2.0,3.0,72,0.00,,,0.07,Wunderground v.1.15,2013-01-07 00:13:00,
2013-01-06 19:16:00,36.9,29.1,30.10,NNW,345,1.0,6.0,73,0.00,,,0.07,Wunderground v.1.15,2013-01-07 00:16:00,
2013-01-06 19:18:00,36.9,29.1,30.10,WNW,290,2.0,6.0,73,0.00,,,0.07,Wunderground v.1.15,2013-01-07 00:18:00,
2013-01-06 19:19:00,36.9,29.1,30.10,WNW,291,2.0,6.0,73,0.00,,,0.07,Wunderground v.1.15,2013-01-07 00:19:00,
2013-01-06 19:23:00,36.9,29.1,30.10,WNW,292,2.0,8.0,73,0.00,,,0.07,Wunderground v.1.15,2013-01-07 00:23:00,
2013-01-06 19:24:00,36.9,29.1,30.10,WNW,282,2.0,8.0,73,0.00,,,0.07,Wunderground v.1.15,2013-01-07 00:24:00,
2013-01-06 19:25:00,36.8,29.0,30.11,West,278,2.0,8.0,73,0.00,,,0.07,Wunderground v.1.15,2013-01-07 00:25:00,
2013-01-06 19:26:00,36.9,29.1,30.10,WNW,297,2.0,8.0,73,0.00,,,0.07,Wunderground v.1.15,2013-01-07 00:26:00,
2013-01-06 19:31:00,36.9,29.1,30.11,WNW,288,3.0,4.0,73,0.00,,,0.07,Wunderground v.1.15,2013-01-07 00:31:00,
2013-01-06 19:33:00,36.9,29.1,30.11,West,277,3.0,11.0,73,0.00,,,0.07,Wunderground v.1.15,2013-01-07 00:33:00,
2013-01-06 19:37:00,36.9,29.1,30.10,WSW,257,3.0,11.0,73,0.00,,,0.07,Wunderground v.1.15,2013-01-07 00:37:00,
2013-01-06 19:38:00,36.9,29.1,30.11,West,272,3.0,11.0,73,0.00,,,0.07,Wunderground v.1.15,2013-01-07 00:38:00,
2013-01-06 19:39:00,36.9,29.1,30.11,West,279,3.0,11.0,73,0.00,,,0.07,Wunderground v.1.15,2013-01-07 00:39:00,
2013-01-06 19:42:00,36.8,29.3,30.11,WNW,289,2.0,3.0,74,0.00,,,0.07,Wunderground v.1.15,2013-01-07 00:42:00,
2013-01-06 19:45:00,36.6,29.1,30.11,WNW,284,2.0,3.0,74,0.00,,,0.07,Wunderground v.1.15,2013-01-07 00:45:00,
2013-01-06 19:48:00,36.5,28.7,30.11,WNW,285,1.0,4.0,73,0.00,,,0.07,Wunderground v.1.15,2013-01-07 00:48:00,
2013-01-06 19:49:00,36.6,28.8,30.11,West,279,1.0,4.0,73,0.00,,,0.07,Wunderground v.1.15,2013-01-07 00:49:00,
2013-01-06 19:50:00,36.6,29.1,30.11,West,279,2.0,2.0,74,0.00,,,0.07,Wunderground v.1.15,2013-01-07 00:50:00,
2013-01-06 19:53:00,36.5,29.0,30.11,West,281,2.0,3.0,74,0.00,,,0.07,Wunderground v.1.15,2013-01-07 00:53:00,
2013-01-06 19:55:00,36.4,28.9,30.11,WNW,284,2.0,4.0,74,0.00,,,0.07,Wunderground v.1.15,2013-01-07 00:55:00,
2013-01-06 20:01:00,36.7,28.9,30.11,West,266,2.0,9.0,73,0.00,,,0.07,Wunderground v.1.15,2013-01-07 01:01:00,
2013-01-06 20:03:00,36.7,29.2,30.11,WNW,283,2.0,9.0,74,0.00,,,0.07,Wunderground v.1.15,2013-01-07 01:03:00,
2013-01-06 20:05:00,36.7,29.2,30.10,West,271,2.0,9.0,74,0.00,,,0.07,Wunderground v.1.15,2013-01-07 01:05:00,
2013-01-06 20:06:00,36.7,29.2,30.10,West,267,2.0,9.0,74,0.00,,,0.07,Wunderground v.1.15,2013-01-07 01:06:00,
2013-01-06 20:11:00,36.6,28.8,30.10,WNW,298,2.0,4.0,73,0.00,,,0.07,Wunderground v.1.15,2013-01-07 01:11:00,
2013-01-06 20:12:00,36.6,29.1,30.10,West,275,2.0,4.0,74,0.00,,,0.07,Wunderground v.1.15,2013-01-07 01:12:00,
2013-01-06 20:14:00,36.6,29.1,30.10,West,271,2.0,4.0,74,0.00,,,0.07,Wunderground v.1.15,2013-01-07 01:14:00,
2013-01-06 20:15:00,36.6,29.1,30.10,West,271,2.0,4.0,74,0.00,,,0.07,Wunderground v.1.15,2013-01-07 01:15:00,
2013-01-06 20:17:00,36.6,28.8,30.10,West,260,2.0,5.0,73,0.00,,,0.07,Wunderground v.1.15,2013-01-07 01:17:00,
2013-01-06 20:19:00,36.6,29.1,30.10,NNW,331,2.0,6.0,74,0.00,,,0.07,Wunderground v.1.15,2013-01-07 01:19:00,
2013-01-06 20:20:00,36.6,29.1,30.10,WNW,292,3.0,3.0,74,0.00,,,0.07,Wunderground v.1.15,2013-01-07 01:20:00,
2013-01-06 20:21:00,36.6,29.1,30.10,WNW,285,3.0,3.0,74,0.00,,,0.07,Wunderground v.1.15,2013-01-07 01:21:00,
2013-01-06 20:23:00,36.6,29.1,30.10,WNW,287,2.0,5.0,74,0.00,,,0.07,Wunderground v.1.15,2013-01-07 01:23:00,
2013-01-06 20:25:00,36.5,29.0,30.10,West,272,3.0,5.0,74,0.00,,,0.07,Wunderground v.1.15,2013-01-07 01:25:00,
2013-01-06 20:26:00,36.5,29.0,30.10,WNW,288,2.0,5.0,74,0.00,,,0.07,Wunderground v.1.15,2013-01-07 01:26:00,
2013-01-06 20:30:00,36.5,29.0,30.10,WNW,296,2.0,2.0,74,0.00,,,0.07,Wunderground v.1.15,2013-01-07 01:30:00,
2013-01-06 20:31:00,36.4,29.2,30.10,WNW,285,2.0,3.0,75,0.00,,,0.07,Wunderground v.1.15,2013-01-07 01:31:00,
2013-01-06 20:32:00,36.4,28.9,30.10,West,281,2.0,8.0,74,0.00,,,0.07,Wunderground v.1.15,2013-01-07 01:32:00,
2013-01-06 20:33:00,36.4,28.9,30.10,WNW,290,2.0,8.0,74,0.00,,,0.07,Wunderground v.1.15,2013-01-07 01:33:00,
2013-01-06 20:37:00,36.3,28.8,30.11,WNW,287,2.0,8.0,74,0.00,,,0.07,Wunderground v.1.15,2013-01-07 01:37:00,
2013-01-06 20:39:00,36.3,29.1,30.10,West,281,3.0,8.0,75,0.00,,,0.07,Wunderground v.1.15,2013-01-07 01:39:00,
2013-01-06 20:40:00,36.3,28.8,30.11,West,281,3.0,4.0,74,0.00,,,0.07,Wunderground v.1.15,2013-01-07 01:40:00,
2013-01-06 20:44:00,36.2,29.0,30.11,WNW,287,3.0,4.0,75,0.00,,,0.07,Wunderground v.1.15,2013-01-07 01:44:00,
2013-01-06 20:45:00,36.1,28.9,30.11,WNW,287,3.0,5.0,75,0.00,,,0.07,Wunderground v.1.15,2013-01-07 01:45:00,
2013-01-06 20:46:00,36.1,28.9,30.11,WNW,302,3.0,5.0,75,0.00,,,0.07,Wunderground v.1.15,2013-01-07 01:46:00,
2013-01-06 20:49:00,36.2,29.0,30.10,West,269,3.0,5.0,75,0.00,,,0.07,Wunderground v.1.15,2013-01-07 01:49:00,
2013-01-06 20:51:00,36.3,29.1,30.10,WNW,285,4.0,4.0,75,0.00,,,0.07,Wunderground v.1.15,2013-01-07 01:51:00,
2013-01-06 20:53:00,36.4,28.9,30.10,WNW,291,4.0,4.0,74,0.00,,,0.07,Wunderground v.1.15,2013-01-07 01:53:00,
2013-01-06 20:57:00,36.4,28.9,30.11,WNW,294,3.0,5.0,74,0.00,,,0.07,Wunderground v.1.15,2013-01-07 01:57:00,
2013-01-06 21:00:00,36.4,29.2,30.11,WNW,290,3.0,3.0,75,0.00,,,0.07,Wunderground v.1.15,2013-01-07 02:00:00,
2013-01-06 21:02:00,36.3,28.8,30.11,WNW,288,3.0,7.0,74,0.00,,,0.07,Wunderground v.1.15,2013-01-07 02:02:00,
2013-01-06 21:04:00,36.3,28.8,30.11,WNW,288,3.0,7.0,74,0.00,,,0.07,Wunderground v.1.15,2013-01-07 02:04:00,
2013-01-06 21:08:00,36.3,29.1,30.11,NNW,332,3.0,7.0,75,0.00,,,0.07,Wunderground v.1.15,2013-01-07 02:08:00,
2013-01-06 21:10:00,36.2,29.0,30.11,WNW,295,3.0,4.0,75,0.00,,,0.07,Wunderground v.1.15,2013-01-07 02:10:00,
2013-01-06 21:11:00,36.2,29.0,30.11,WNW,294,3.0,6.0,75,0.00,,,0.08,Wunderground v.1.15,2013-01-07 02:11:00,
2013-01-06 21:17:00,36.2,29.0,30.11,NNW,339,4.0,6.0,75,0.00,,,0.08,Wunderground v.1.15,2013-01-07 02:17:00,
2013-01-06 21:18:00,36.2,29.0,30.11,NNW,348,4.0,6.0,75,0.00,,,0.08,Wunderground v.1.15,2013-01-07 02:18:00,
2013-01-06 21:19:00,36.3,29.1,30.11,WNW,298,4.0,6.0,75,0.00,,,0.08,Wunderground v.1.15,2013-01-07 02:19:00,
2013-01-06 21:22:00,36.3,29.1,30.10,NW,314,5.0,7.0,75,0.00,,,0.08,Wunderground v.1.15,2013-01-07 02:22:00,
2013-01-06 21:24:00,36.4,28.9,30.11,West,277,5.0,7.0,74,0.00,,,0.08,Wunderground v.1.15,2013-01-07 02:24:00,
2013-01-06 21:27:00,36.4,28.9,30.11,West,279,5.0,7.0,74,0.00,,,0.08,Wunderground v.1.15,2013-01-07 02:27:00,
2013-01-06 21:30:00,36.4,29.2,30.11,WNW,284,5.0,5.0,75,0.00,,,0.08,Wunderground v.1.15,2013-01-07 02:30:00,
2013-01-06 21:32:00,36.3,29.1,30.11,WNW,288,5.0,8.0,75,0.00,,,0.08,Wunderground v.1.15,2013-01-07 02:32:00,
2013-01-06 21:35:00,36.2,29.0,30.11,WNW,288,5.0,10.0,75,0.00,,,0.08,Wunderground v.1.15,2013-01-07 02:35:00,
2013-01-06 21:36:00,36.3,29.1,30.11,West,279,4.0,10.0,75,0.00,,,0.08,Wunderground v.1.15,2013-01-07 02:36:00,
2013-01-06 21:37:00,36.3,29.1,30.11,WNW,294,4.0,10.0,75,0.00,,,0.08,Wunderground v.1.15,2013-01-07 02:37:00,
2013-01-06 21:38:00,36.3,29.1,30.11,WNW,290,4.0,10.0,75,0.00,,,0.08,Wunderground v.1.15,2013-01-07 02:38:00,
2013-01-06 21:40:00,36.2,29.0,30.11,WNW,300,4.0,4.0,75,0.00,,,0.08,Wunderground v.1.15,2013-01-07 02:40:00,
2013-01-06 21:42:00,36.3,29.1,30.11,WNW,302,4.0,4.0,75,0.00,,,0.08,Wunderground v.1.15,2013-01-07 02:42:00,
2013-01-06 21:45:00,36.3,29.1,30.11,West,281,4.0,6.0,75,0.00,,,0.08,Wunderground v.1.15,2013-01-07 02:45:00,
2013-01-06 21:48:00,36.3,29.1,30.11,WNW,291,4.0,6.0,75,0.00,,,0.08,Wunderground v.1.15,2013-01-07 02:48:00,
2013-01-06 21:49:00,36.3,29.1,30.11,NW,324,4.0,6.0,75,0.00,,,0.08,Wunderground v.1.15,2013-01-07 02:49:00,
2013-01-06 21:52:00,36.3,29.1,30.11,NW,313,4.0,4.0,75,0.00,,,0.08,Wunderground v.1.15,2013-01-07 02:52:00,
2013-01-06 21:55:00,36.2,29.0,30.12,West,268,4.0,4.0,75,0.00,,,0.08,Wunderground v.1.15,2013-01-07 02:55:00,
2013-01-06 21:57:00,36.3,29.1,30.12,WNW,300,4.0,4.0,75,0.00,,,0.08,Wunderground v.1.15,2013-01-07 02:57:00,
2013-01-06 22:00:00,36.2,29.4,30.12,West,276,3.0,3.0,76,0.00,,,0.08,Wunderground v.1.15,2013-01-07 03:00:00,
2013-01-06 22:01:00,36.1,29.3,30.12,WNW,292,3.0,13.0,76,0.00,,,0.08,Wunderground v.1.15,2013-01-07 03:01:00,
2013-01-06 22:05:00,36.1,29.3,30.12,WNW,282,3.0,13.0,76,0.00,,,0.08,Wunderground v.1.15,2013-01-07 03:05:00,
2013-01-06 22:06:00,36.0,29.2,30.12,WNW,291,2.0,13.0,76,0.00,,,0.08,Wunderground v.1.15,2013-01-07 03:06:00,
2013-01-06 22:08:00,36.0,29.2,30.12,WNW,296,2.0,13.0,76,0.00,,,0.08,Wunderground v.1.15,2013-01-07 03:08:00,
2013-01-06 22:11:00,36.0,28.8,30.12,NW,321,2.0,3.0,75,0.00,,,0.08,Wunderground v.1.15,2013-01-07 03:11:00,
2013-01-06 22:12:00,36.0,29.2,30.12,WNW,292,3.0,3.0,76,0.00,,,0.08,Wunderground v.1.15,2013-01-07 03:12:00,
2013-01-06 22:14:00,36.0,29.2,30.12,WNW,290,3.0,4.0,76,0.00,,,0.08,Wunderground v.1.15,2013-01-07 03:14:00,
2013-01-06 22:17:00,36.0,28.8,30.13,WNW,291,4.0,4.0,75,0.00,,,0.08,Wunderground v.1.15,2013-01-07 03:17:00,
2013-01-06 22:19:00,36.0,29.2,30.13,West,260,4.0,5.0,76,0.00,,,0.08,Wunderground v.1.15,2013-01-07 03:19:00,
2013-01-06 22:20:00,36.0,29.2,30.13,WNW,295,3.0,4.0,76,0.00,,,0.08,Wunderground v.1.15,2013-01-07 03:20:00,
2013-01-06 22:23:00,36.0,29.2,30.12,West,271,4.0,7.0,76,0.00,,,0.08,Wunderground v.1.15,2013-01-07 03:23:00,
2013-01-06 22:25:00,36.0,29.2,30.12,NW,311,4.0,7.0,76,0.00,,,0.08,Wunderground v.1.15,2013-01-07 03:25:00,
2013-01-06 22:26:00,36.0,29.2,30.12,WNW,296,4.0,7.0,76,0.00,,,0.08,Wunderground v.1.15,2013-01-07 03:26:00,
2013-01-06 22:30:00,35.8,29.0,30.12,WNW,297,2.0,2.0,76,0.00,,,0.08,Wunderground v.1.15,2013-01-07 03:30:00,
2013-01-06 22:32:00,35.7,28.9,30.12,West,277,2.0,4.0,76,0.00,,,0.08,Wunderground v.1.15,2013-01-07 03:32:00,
2013-01-06 22:34:00,35.7,28.9,30.13,WNW,291,2.0,4.0,76,0.00,,,0.08,Wunderground v.1.15,2013-01-07 03:34:00,
2013-01-06 22:36:00,35.6,28.8,30.13,WNW,299,1.0,4.0,76,0.00,,,0.08,Wunderground v.1.15,2013-01-07 03:36:00,
2013-01-06 22:39:00,35.5,29.0,30.13,WNW,283,1.0,4.0,77,0.00,,,0.08,Wunderground v.1.15,2013-01-07 03:39:00,
2013-01-06 22:42:00,35.5,29.0,30.13,WNW,288,1.0,3.0,77,0.00,,,0.08,Wunderground v.1.15,2013-01-07 03:42:00,
2013-01-06 22:43:00,35.5,29.0,30.13,West,276,1.0,3.0,77,0.00,,,0.08,Wunderground v.1.15,2013-01-07 03:43:00,
2013-01-06 22:44:00,35.5,29.0,30.13,WNW,294,1.0,3.0,77,0.00,,,0.08,Wunderground v.1.15,2013-01-07 03:44:00,
2013-01-06 22:47:00,35.5,29.0,30.13,WNW,288,2.0,5.0,77,0.00,,,0.08,Wunderground v.1.15,2013-01-07 03:47:00,
2013-01-06 22:48:00,35.5,29.0,30.13,WNW,303,2.0,5.0,77,0.00,,,0.08,Wunderground v.1.15,2013-01-07 03:48:00,
2013-01-06 22:52:00,35.4,28.9,30.13,WNW,282,3.0,4.0,77,0.00,,,0.08,Wunderground v.1.15,2013-01-07 03:52:00,
2013-01-06 22:53:00,35.4,28.9,30.13,WNW,296,3.0,4.0,77,0.00,,,0.08,Wunderground v.1.15,2013-01-07 03:53:00,
2013-01-06 22:58:00,35.4,29.2,30.14,West,268,2.0,4.0,78,0.00,,,0.08,Wunderground v.1.15,2013-01-07 03:58:00,
2013-01-06 23:00:00,35.4,29.2,30.14,WNW,292,2.0,2.0,78,0.00,,,0.08,Wunderground v.1.15,2013-01-07 04:00:00,
2013-01-06 23:04:00,35.4,29.2,30.14,WNW,298,2.0,12.0,78,0.00,,,0.08,Wunderground v.1.15,2013-01-07 04:04:00,
2013-01-06 23:05:00,35.4,29.2,30.14,WNW,300,2.0,12.0,78,0.00,,,0.08,Wunderground v.1.15,2013-01-07 04:05:00,
2013-01-06 23:06:00,35.3,29.1,30.14,WNW,298,2.0,12.0,78,0.00,,,0.08,Wunderground v.1.15,2013-01-07 04:06:00,
2013-01-06 23:10:00,35.3,29.1,30.14,NNW,344,2.0,2.0,78,0.00,,,0.08,Wunderground v.1.15,2013-01-07 04:10:00,
2013-01-06 23:11:00,35.3,29.1,30.14,WNW,290,2.0,2.0,78,0.00,,,0.08,Wunderground v.1.15,2013-01-07 04:11:00,
2013-01-06 23:12:00,35.3,29.1,30.15,WNW,285,2.0,2.0,78,0.00,,,0.08,Wunderground v.1.15,2013-01-07 04:12:00,
2013-01-06 23:13:00,35.3,29.1,30.15,WNW,289,2.0,2.0,78,0.00,,,0.08,Wunderground v.1.15,2013-01-07 04:13:00,
2013-01-06 23:18:00,35.3,29.1,30.15,WNW,296,2.0,6.0,78,0.00,,,0.08,Wunderground v.1.15,2013-01-07 04:18:00,
2013-01-06 23:20:00,35.3,29.4,30.15,WNW,293,3.0,5.0,79,0.00,,,0.08,Wunderground v.1.15,2013-01-07 04:20:00,
2013-01-06 23:22:00,35.3,29.4,30.15,WNW,295,3.0,5.0,79,0.00,,,0.08,Wunderground v.1.15,2013-01-07 04:22:00,
2013-01-06 23:23:00,35.3,29.4,30.15,WNW,298,3.0,5.0,79,0.00,,,0.08,Wunderground v.1.15,2013-01-07 04:23:00,
2013-01-06 23:26:00,35.3,29.4,30.15,WNW,289,3.0,5.0,79,0.00,,,0.08,Wunderground v.1.15,2013-01-07 04:26:00,
2013-01-06 23:27:00,35.3,29.4,30.15,West,268,3.0,5.0,79,0.00,,,0.08,Wunderground v.1.15,2013-01-07 04:27:00,
2013-01-06 23:32:00,35.3,29.1,30.15,WNW,291,4.0,8.0,78,0.00,,,0.08,Wunderground v.1.15,2013-01-07 04:32:00,
2013-01-06 23:34:00,35.3,29.4,30.15,WNW,301,4.0,8.0,79,0.00,,,0.08,Wunderground v.1.15,2013-01-07 04:34:00,
2013-01-06 23:35:00,35.3,29.4,30.15,West,275,4.0,8.0,79,0.00,,,0.08,Wunderground v.1.15,2013-01-07 04:35:00,
2013-01-06 23:37:00,35.3,29.4,30.15,WNW,302,4.0,8.0,79,0.00,,,0.08,Wunderground v.1.15,2013-01-07 04:37:00,
2013-01-06 23:41:00,35.4,29.5,30.16,NW,326,3.0,3.0,79,0.00,,,0.08,Wunderground v.1.15,2013-01-07 04:41:00,
2013-01-06 23:42:00,35.4,29.2,30.16,WNW,283,3.0,3.0,78,0.00,,,0.08,Wunderground v.1.15,2013-01-07 04:42:00,
2013-01-06 23:43:00,35.4,29.5,30.16,WNW,286,3.0,4.0,79,0.00,,,0.08,Wunderground v.1.15,2013-01-07 04:43:00,
2013-01-06 23:47:00,35.5,29.3,30.16,West,278,2.0,4.0,78,0.00,,,0.08,Wunderground v.1.15,2013-01-07 04:47:00,
2013-01-06 23:49:00,35.6,29.7,30.17,WNW,284,2.0,4.0,79,0.00,,,0.08,Wunderground v.1.15,2013-01-07 04:49:00,
2013-01-06 23:50:00,35.5,29.6,30.17,NNW,338,2.0,2.0,79,0.00,,,0.08,Wunderground v.1.15,2013-01-07 04:50:00,
2013-01-06 23:51:00,35.5,29.6,30.17,WNW,284,2.0,3.0,79,0.00,,,0.08,Wunderground v.1.15,2013-01-07 04:51:00,
2013-01-06 23:56:00,35.6,29.7,30.17,NNW,338,3.0,5.0,79,0.00,,,0.08,Wunderground v.1.15,2013-01-07 04:56:00,
2013-01-06 23:57:00,35.6,29.4,30.17,WNW,300,3.0,5.0,78,0.00,,,0.08,Wunderground v.1.15,2013-01-07 04:57:00,
2013-01-06 23:59:00,35.6,29.4,30.17,North,360,3.0,7.0,78,0.00,,,0.08,Wunderground v.1.15,2013-01-07 04:59:00,